GFSCGP_prec_cloud_027.txt.gz
Cloud_Cover
5 42 90 100 100 100 31 96 100 100 100 100 100 100 100 93 97 98 83 100 100 96 20 26 78 100 84 100 95 100 100 100 100 100 100 100 100 57 100 100 97 57 5 7
3 93 96 94 100 100 30 100 100 100 90 89 94 100 100 72 100 100 100 100 100 47 18 99 100 100 100 100 96 93 100 100 95 87 52 43 26 21 10 5 5 5 5 5
73 98 51 94 100 69 70 98 95 88 51 61 53 30 70 99 100 100 100 48 6 5 5 5 27 50 74 76 19 100 90 90 38 5 7 20 5 42 8 4 2 0 0 5
40 86 46 100 87 88 50 98 96 55 89 100 83 99 100 99 90 98 94 100 59 37 5 5 5 2 24 74 97 100 55 23 6 22 58 50 41 2 0 0 0 0 5 5
43 100 45 44 15 59 57 100 100 100 97 100 100 40 96 100 98 98 100 68 75 70 4 3 5 5 0 5 44 44 43 76 77 9 21 21 72 26 0 0 0 5 6 74
75 51 100 100 94 96 56 98 96 71 100 100 98 29 99 66 97 78 100 100 8 68 100 34 4 5 5 43 100 59 1 76 65 50 28 5 4 0 0 0 3 52 98 99
100 97 100 100 100 55 100 99 42 61 91 100 64 100 100 90 85 45 100 100 85 64 35 47 2 0 0 83 14 100 17 24 1 1 5 5 4 3 5 5 42 100 100 53
95 93 100 100 88 100 100 66 79 99 100 81 100 89 60 95 85 8 100 87 99 100 85 78 0 0 0 2 10 100 38 0 3 3 5 43 5 5 90 100 100 95 100 8
29 26 79 80 97 100 100 6 67 96 100 100 74 94 7 0 2 5 22 97 100 96 100 2 0 0 0 0 0 11 0 1 0 4 91 100 77 100 100 100 100 100 83 56
36 24 72 100 96 99 100 56 62 32 100 100 100 12 4 19 30 34 5 7 94 100 38 0 0 0 0 0 0 0 0 2 1 5 15 95 99 67 87 93 91 84 100 98
100 100 100 62 98 92 25 95 98 20 36 97 5 29 75 62 5 3 0 0 0 0 0 0 0 0 0 0 0 0 0 0 1 1 5 23 8 8 88 100 88 100 84 100
99 100 100 100 99 34 24 87 100 5 9 83 4 20 36 5 4 0 0 0 0 0 0 0 0 0 0 0 0 0 0 0 61 100 5 5 5 88 100 100 100 100 100 74
73 100 100 100 75 4 10 10 5 60 5 5 5 6 0 0 0 0 0 0 0 0 0 0 0 1 3 1 4 1 3 30 68 29 5 8 97 100 100 100 87 80 95 66
24 30 11 5 11 6 34 5 46 23 6 3 0 0 0 0 3 0 0 0 0 0 0 1 5 5 5 27 30 80 22 38 29 5 5 81 100 100 100 100 85 100 71 95
42 35 63 35 5 5 53 5 92 86 39 4 0 0 0 4 5 5 4 2 0 45 2 0 3 32 5 13 18 5 26 39 5 7 9 65 100 99 81 100 99 73 91 75
5 5 2 0 0 0 5 0 3 5 0 5 5 4 0 5 2 5 0 0 5 5 5 5 5 5 5 36 77 5 4 10 17 97 97 100 100 72 96 99 98 100 100 100
3 0 0 0 0 0 0 0 0 0 0 0 0 0 0 0 0 3 5 18 4 0 5 5 4 0 36 100 13 5 5 53 100 100 100 100 100 100 100 100 100 100 100 100
0 4 5 3 0 0 0 0 0 0 0 0 5 5 4 3 3 0 0 3 5 5 5 5 5 70 98 9 5 5 28 100 100 100 100 100 97 83 99 100 100 100 100 100
4 2 0 0 3 3 0 0 0 0 0 0 5 5 5 5 1 5 5 5 5 5 5 5 44 99 10 5 5 5 97 100 100 100 79 100 67 100 100 100 100 100 100 100
3 5 5 0 5 5 5 5 0 0 2 5 5 5 5 5 5 5 5 5 5 5 5 26 100 6 6 36 5 6 18 24 21 90 91 73 100 100 100 100 100 100 100 100
8 5 5 9 13 5 6 5 4 1 0 5 5 5 5 6 5 5 5 5 19 6 90 77 5 12 8 52 92 94 79 92 89 87 100 100 100 100 100 100 100 100 100 100
7 29 46 58 79 15 5 61 5 5 5 27 5 5 12 80 82 7 5 5 42 100 100 16 5 18 90 100 100 100 100 100 100 100 100 100 100 100 100 100 100 100 100 100
49 5 5 5 5 5 5 5 5 33 68 5 5 30 67 18 26 45 9 99 100 100 71 15 92 98 100 100 98 100 100 100 100 100 100 98 69 96 100 100 95 100 85 100
85 20 5 5 5 33 8 15 59 100 100 80 90 67 8 7 6 44 100 100 100 99 95 100 96 75 61 97 100 100 100 100 100 78 77 54 66 36 5 0 4 5 5 29
84 48 7 40 10 11 5 41 100 100 96 93 86 18 5 13 99 100 100 97 83 100 100 100 94 57 57 100 100 100 100 98 13 5 6 2 0 1 3 5 5 5 6 21
79 69 100 100 100 86 42 8 5 9 24 39 59 32 5 99 100 100 82 59 74 100 100 100 85 88 98 100 100 100 86 5 5 5 5 5 5 2 4 5 5 5 5 5

GFSCGP_prec_cloud_030.txt.gz
Cloud_Cover
0 4 98 100 100 100 99 90 99 96 100 100 100 100 100 100 100 93 100 37 6 100 100 100 100 100 100 100 93 52 80 90 95 100 100 100 100 100 100 100 100 100 100 100
1 81 84 78 99 78 99 62 92 100 62 97 100 100 100 100 90 100 49 32 34 7 91 100 100 99 5 0 3 4 5 27 100 100 96 65 46 35 80 62 42 19 5 5
19 5 93 100 100 67 84 100 100 100 100 100 96 77 100 91 85 97 95 93 65 63 41 89 36 5 5 5 5 5 72 92 100 26 38 23 26 10 5 5 5 16 51 44
30 80 48 100 89 52 100 100 100 100 100 100 76 98 52 26 69 100 100 100 100 76 7 11 37 84 96 63 5 62 100 100 79 96 7 7 6 20 8 9 6 2 1 5
26 16 15 58 93 98 100 89 67 99 100 61 85 63 7 66 26 90 100 100 82 25 0 7 39 53 11 6 13 4 100 88 100 98 37 15 80 5 5 1 0 5 5 8
5 5 34 90 91 30 10 69 26 100 100 20 16 12 79 86 78 74 87 100 74 28 94 47 3 2 11 3 5 27 17 22 78 10 4 80 97 15 5 5 5 14 63 54
6 83 91 89 93 51 26 26 90 96 98 80 30 19 5 99 97 100 37 19 12 15 70 47 56 22 47 29 29 28 0 8 0 10 22 87 65 35 70 72 58 99 90 96
5 13 100 100 88 25 8 90 100 74 27 5 10 5 70 95 89 100 67 1 24 10 12 100 76 11 5 22 48 34 4 4 0 2 6 20 94 100 98 100 97 100 100 100
5 7 8 100 100 99 13 39 5 12 98 55 31 5 100 46 5 2 3 0 0 0 5 5 3 5 5 30 4 5 12 14 37 59 99 100 100 100 83 100 100 100 100 100
8 30 63 58 71 80 59 95 84 82 100 95 5 5 20 56 5 5 1 0 2 0 2 4 5 9 68 0 3 16 2 0 44 55 88 99 100 100 100 99 100 100 100 100
94 2 2 88 69 35 100 100 33 45 17 69 6 6 17 2 4 5 9 5 5 0 0 0 31 66 1 0 0 0 3 5 5 2 59 97 100 100 100 100 100 96 100 99
11 10 6 36 7 70 9 12 7 9 60 10 16 0 2 5 5 82 38 0 0 0 0 0 0 4 5 0 0 4 5 4 0 2 5 71 74 72 78 98 94 82 88 97
3 67 95 74 28 78 62 100 77 22 59 73 6 1 5 0 4 2 0 5 2 0 0 2 2 0 0 2 1 3 6 12 6 29 100 94 44 90 42 54 60 40 24 15
5 5 9 49 10 10 99 67 20 14 26 5 5 1 6 0 0 0 0 0 0 0 5 2 3 4 5 6 10 65 32 83 99 78 67 36 100 97 99 15 57 6 5 5
93 6 7 99 98 5 70 15 20 7 5 2 0 4 0 0 0 3 0 0 0 0 0 0 3 5 5 13 33 86 96 68 15 5 34 100 100 100 93 100 100 61 26 87
44 5 9 5 2 0 1 0 0 0 94 5 4 2 0 1 35 2 0 2 3 5 4 5 5 2 5 6 33 5 3 4 5 83 100 100 100 100 100 100 100 98 97 100
5 5 5 4 0 0 0 0 0 0 4 25 26 5 0 0 0 0 3 5 3 0 4 4 4 2 0 0 0 0 5 5 44 89 67 98 100 100 100 100 100 100 100 100
5 68 5 1 0 1 0 0 0 0 0 0 0 4 0 0 0 0 2 2 1 5 5 5 4 4 5 2 5 34 21 61 75 100 100 82 74 18 78 100 100 100 100 100
31 85 77 5 5 0 0 0 0 0 0 0 5 4 0 0 0 0 0 5 11 32 8 5 5 5 5 11 97 100 20 5 30 98 99 100 100 100 100 100 100 100 100 100
5 5 39 21 4 2 1 4 0 0 4 5 5 5 5 5 5 5 6 52 66 7 5 4 5 5 46 100 100 98 17 5 7 28 97 100 100 100 100 100 100 100 100 99
74 10 26 45 5 4 4 4 4 5 58 30 6 5 0 5 5 31 60 14 8 10 9 6 5 10 100 83 6 64 62 100 100 100 100 100 100 100 100 100 100 100 62 10
94 30 42 70 74 5 5 5 5 22 32 5 5 16 39 5 6 16 16 13 15 21 43 20 12 92 95 87 71 100 100 100 100 100 100 100 100 100 100 100 100 75 2 4
98 10 10 26 82 75 47 61 21 5 5 6 40 52 62 89 75 31 70 12 5 8 36 17 70 100 100 100 100 100 100 100 100 100 100 100 100 100 98 100 61 4 5 2
100 26 49 55 95 100 58 32 7 11 42 30 41 88 100 100 98 78 58 16 34 50 11 69 100 100 100 100 98 64 100 100 100 100 100 100 99 96 100 46 5 5 5 5
55 20 84 88 96 46 100 80 56 69 100 100 100 100 100 99 92 99 100 98 63 39 100 100 100 100 100 98 23 87 100 100 100 100 100 76 98 100 90 5 5 5 1 5
92 34 38 96 97 77 58 48 55 79 100 100 100 100 100 100 100 90 67 65 96 100 100 100 100 97 66 7 51 76 82 100 100 100 62 96 83 35 10 5 3 1 5 5

GFSCGP_prec_cloud_033.txt.gz
Cloud_Cover
0 0 4 4 88 100 100 100 100 100 100 100 100 100 100 87 100 100 100 100 100 100 100 100 100 100 100 100 100 100 100 100 100 100 100 100 100 100 100 100 100 100 100 100
0 2 3 80 76 75 93 96 90 100 100 100 100 100 100 100 76 25 100 100 100 100 100 100 100 100 100 100 100 100 100 100 100 100 100 80 84 91 96 100 100 100 95 72
2 24 55 100 100 98 97 90 100 100 100 100 100 100 100 100 98 37 12 65 69 98 7 6 5 12 51 72 72 100 100 98 13 11 9 38 53 36 72 38 5 8 6 7
0 70 58 17 24 97 57 55 66 100 100 100 100 100 100 100 99 100 70 90 100 100 59 42 5 24 5 5 14 12 15 63 68 83 93 92 94 21 47 62 5 5 5 6
0 5 99 12 5 79 100 77 67 86 100 71 39 100 100 100 100 100 76 77 100 100 100 100 100 21 0 8 5 5 27 100 100 100 100 100 100 100 90 42 5 5 6 5
3 5 5 5 5 74 100 100 97 98 100 16 8 29 98 80 58 100 100 100 60 25 40 22 100 100 20 7 5 18 66 100 100 98 88 63 51 13 5 38 5 96 76 30
3 3 3 62 54 6 79 100 100 88 88 28 19 33 8 62 58 66 78 100 50 41 1 5 41 95 89 33 17 53 98 90 100 100 22 12 7 4 5 5 8 44 35 65
0 0 4 5 99 5 5 29 97 100 100 69 83 70 100 94 68 12 66 98 77 76 78 51 11 5 39 18 38 100 99 99 89 85 9 0 0 0 4 25 32 99 100 100
5 1 5 10 10 9 90 64 25 40 48 26 23 41 21 6 47 6 4 5 70 73 85 50 0 5 36 30 88 100 99 92 28 1 0 1 0 34 66 95 100 100 100 100
3 5 4 5 3 91 100 19 8 5 5 5 17 51 23 34 11 5 28 1 0 5 5 5 14 9 22 14 20 40 12 3 0 0 0 1 5 7 99 100 83 93 100 100
1 0 1 5 1 39 40 5 8 32 40 5 8 70 14 5 10 66 5 0 0 5 5 5 5 0 0 0 0 8 2 0 0 0 5 5 10 74 37 64 100 100 100 100
0 0 0 8 5 2 76 58 14 5 38 21 2 62 5 4 6 5 5 0 5 5 0 3 3 0 0 1 1 0 0 0 1 5 1 5 27 94 98 100 100 100 100 98
0 0 0 5 5 5 5 0 14 5 26 6 4 5 5 7 5 68 100 6 4 0 0 0 0 0 1 5 1 1 0 1 5 8 37 60 14 58 95 100 100 100 50 69
0 0 1 4 5 55 26 0 1 5 20 5 28 4 84 95 91 100 87 8 0 0 0 0 2 5 27 93 99 98 70 34 50 26 11 42 79 97 99 100 100 100 100 100
5 3 5 5 5 10 5 5 4 1 5 5 20 20 5 22 49 32 1 0 2 2 5 72 59 97 51 41 7 64 74 99 76 43 95 92 87 40 26 27 45 100 100 100
3 3 5 5 1 0 5 80 100 23 5 3 5 5 0 0 0 0 0 0 0 5 5 5 0 0 5 5 93 100 96 84 100 87 74 22 65 100 100 100 100 100 100 100
30 1 2 0 0 1 8 0 0 0 0 0 1 2 0 0 1 0 0 0 0 0 4 4 2 5 5 5 6 7 73 69 22 31 96 83 100 100 100 100 100 100 100 100
51 5 4 0 0 4 5 0 0 0 0 0 1 0 0 0 4 5 2 2 0 2 4 4 5 5 5 22 12 5 0 5 5 5 29 77 99 100 100 100 100 100 100 92
5 0 0 0 1 4 5 0 0 0 0 4 1 0 0 0 0 0 1 3 4 2 4 5 5 5 5 5 5 5 5 51 10 34 96 100 100 100 100 100 100 100 100 100
35 5 0 8 0 4 90 2 0 0 5 5 5 5 0 0 0 0 2 0 0 5 5 5 5 5 5 5 5 5 11 47 100 60 91 100 100 100 100 100 100 100 100 100
5 6 0 25 0 13 5 2 5 4 10 1 4 5 5 5 5 5 5 5 6 17 59 41 6 38 50 6 13 23 31 100 99 71 100 100 100 100 100 100 100 100 100 100
6 10 38 2 2 68 4 11 5 4 0 2 5 5 13 20 48 9 6 54 36 9 5 8 89 85 89 68 81 96 100 99 93 100 100 100 99 100 100 100 100 100 100 98
11 6 44 0 5 35 5 5 5 5 5 5 5 5 5 5 5 5 9 6 8 58 97 100 100 93 99 80 97 99 100 100 72 59 12 79 98 100 100 100 100 95 98 99
6 4 5 5 83 62 43 9 5 5 5 5 5 8 58 100 100 100 100 100 100 100 100 100 100 98 100 100 100 100 100 92 42 29 83 99 100 100 100 90 91 84 100 100
72 5 72 100 100 81 98 81 32 18 7 7 9 32 96 100 100 100 100 100 100 100 100 100 97 100 100 100 99 98 88 58 65 71 67 25 50 58 62 84 76 100 100 99
56 100 100 100 100 92 75 99 100 100 100 100 100 100 100 100 100 100 100 100 100 100 100 100 100 100 96 67 70 38 44 6 5 5 5 5 7 81 100 95 91 100 100 73

GFSCGP_prec_cloud_036.txt.gz
Cloud_Cover
0 0 0 1 91 100 99 56 5 86 94 100 100 100 100 100 100 100 100 100 100 100 100 100 100 100 100 87 44 8 100 100 100 100 100 100 100 100 100 100 100 100 100 100
0 0 0 5 5 84 100 100 94 100 94 100 100 100 100 100 100 100 100 100 100 100 100 100 77 92 100 100 100 100 100 79 94 100 100 100 100 100 100 100 100 100 91 72
0 0 1 14 5 25 43 97 100 99 100 100 92 100 98 100 83 93 95 100 100 100 100 100 100 100 100 100 100 100 100 100 100 89 86 97 77 50 39 51 30 60 59 31
0 0 2 1 1 31 94 12 100 100 100 100 100 77 99 100 100 94 99 72 100 100 100 100 100 100 100 91 82 78 94 77 20 18 85 93 84 100 74 77 73 30 7 20
3 0 0 1 0 1 74 12 45 100 100 76 100 100 100 91 78 100 100 100 100 100 81 100 98 100 99 100 100 100 100 100 84 84 100 100 100 100 100 82 18 5 13 5
5 5 1 5 1 2 5 63 29 100 99 100 98 98 93 94 95 100 100 100 92 100 98 19 4 5 17 5 11 93 77 94 100 100 100 100 100 100 47 62 45 5 5 6
5 3 0 0 3 5 5 16 55 70 9 100 100 86 99 57 17 22 9 68 84 38 62 12 5 5 7 19 32 19 90 100 100 100 100 100 100 100 100 100 38 41 99 79
5 1 2 0 0 4 93 35 5 5 5 7 63 93 100 97 99 62 26 19 25 90 96 56 5 29 74 26 19 16 24 100 100 100 100 100 100 100 100 89 35 100 100 100
3 5 5 5 5 0 4 6 17 31 16 13 18 100 78 100 100 100 89 77 17 19 6 6 5 5 5 7 5 16 27 100 100 100 100 100 94 99 53 68 99 91 67 73
5 3 5 5 65 19 1 5 33 11 5 31 79 93 96 54 100 89 87 100 100 51 5 5 1 0 4 5 5 32 95 100 100 100 100 82 42 72 25 76 98 99 100 99
4 0 5 5 5 25 20 1 23 25 55 66 89 98 55 95 63 95 55 100 60 5 4 0 3 5 5 5 14 35 35 11 15 35 10 24 15 15 94 92 89 81 40 43
0 0 1 3 72 4 0 56 5 5 58 100 14 78 21 30 100 93 98 95 5 2 0 5 5 28 55 28 26 33 4 5 54 91 82 89 56 33 51 80 42 88 92 96
0 0 0 0 0 0 0 3 2 5 5 5 5 14 5 18 9 53 100 77 4 0 0 5 5 2 0 0 1 3 87 98 79 5 6 96 83 37 69 90 17 79 28 100
5 0 0 0 1 4 0 1 2 2 5 3 8 5 6 8 44 86 100 36 0 0 2 1 0 0 0 0 38 10 75 10 4 5 30 36 58 44 100 91 92 99 100 100
3 0 0 0 78 2 0 8 5 5 5 16 7 7 5 76 72 99 100 53 3 0 0 0 0 0 0 4 7 16 11 5 1 4 5 12 5 93 84 80 91 80 100 58
5 0 0 1 4 4 0 0 5 56 57 71 6 83 8 5 10 5 4 5 4 0 0 0 0 0 0 2 5 5 3 5 38 100 91 94 100 100 96 100 87 99 31 39
2 0 0 4 5 5 0 0 0 0 4 5 1 0 0 4 4 3 0 3 5 5 0 4 5 5 5 5 5 5 10 67 86 68 86 83 97 99 100 100 100 96 98 100
20 15 6 41 97 15 0 0 0 0 0 0 0 0 0 0 0 3 0 1 5 3 4 5 5 5 5 5 5 5 14 58 98 88 56 18 62 98 100 100 100 100 100 100
5 63 96 84 5 2 0 0 0 0 1 0 0 0 0 0 0 0 0 0 0 0 1 5 2 1 5 5 31 59 66 75 31 5 5 56 72 88 100 100 100 100 100 100
19 90 98 13 3 0 1 0 0 0 7 0 0 0 0 0 0 0 0 2 0 0 4 0 5 5 7 13 5 18 14 5 6 11 17 55 91 100 100 99 100 100 100 100
100 63 9 15 5 5 0 0 0 4 3 0 0 0 0 0 0 0 0 1 0 2 4 5 5 5 5 5 5 18 27 70 38 49 68 92 95 100 100 100 97 83 85 92
100 94 10 52 2 5 2 0 0 0 0 0 3 0 0 0 2 4 5 5 5 5 5 9 5 5 5 16 32 34 81 62 54 99 100 92 79 64 72 74 58 65 66 100
100 100 94 26 5 4 98 5 0 0 4 5 5 5 5 5 5 5 5 5 9 26 7 5 28 47 55 25 55 78 100 100 100 100 95 99 80 74 95 80 11 5 8 26
100 100 30 16 41 5 64 2 0 4 5 5 5 5 5 5 5 5 5 5 5 5 5 5 13 21 89 58 100 99 100 100 100 92 86 74 82 73 29 5 5 5 8 23
91 22 99 80 99 22 5 9 49 90 92 45 5 5 5 5 5 5 5 11 8 7 19 32 39 98 99 100 100 100 100 96 100 85 73 72 26 5 5 5 6 5 26 72
97 100 100 100 87 14 99 100 100 100 100 100 61 23 9 5 5 10 38 62 84 93 90 94 100 100 100 100 100 99 67 88 77 70 46 25 28 29 25 23 35 55 72 25

GFSCGP_prec_cloud_039.txt.gz
Cloud_Cover
0 0 0 0 1 4 5 30 63 47 6 96 100 100 100 100 100 100 100 100 100 100 100 100 100 100 96 98 100 100 100 100 100 100 100 100 100 100 85 100 100 96 100 100
0 0 0 0 0 3 5 6 98 73 96 99 100 100 100 100 100 100 100 100 100 100 100 100 100 100 100 58 100 100 100 100 100 94 82 68 56 61 30 100 100 100 100 100
0 0 0 0 0 1 5 33 86 100 100 100 100 100 100 100 100 100 75 100 100 100 100 100 100 100 100 45 54 34 65 100 99 76 65 36 99 100 100 100 100 100 96 69
0 0 0 3 1 5 5 7 6 34 99 100 100 100 100 100 100 100 100 100 90 100 100 100 100 100 100 100 100 100 100 100 100 100 100 100 100 87 59 23 76 30 60 39
0 0 0 0 4 5 36 12 99 100 95 100 100 100 100 100 81 99 100 100 100 100 100 100 100 100 100 100 100 100 100 100 89 100 98 96 11 53 100 100 79 99 100 100
0 0 0 0 4 5 5 5 7 80 97 88 96 100 100 88 93 78 100 100 100 100 100 78 100 100 100 100 100 100 100 100 56 100 100 88 100 88 95 100 100 100 100 54
0 0 0 0 3 2 3 0 5 18 92 100 67 94 100 100 100 93 100 98 100 98 96 30 59 81 78 88 88 51 64 82 87 100 100 100 100 100 100 100 100 100 100 92
0 0 0 0 0 1 0 0 3 13 100 100 100 100 98 99 100 100 100 100 52 35 14 5 21 24 12 61 61 76 68 72 100 100 100 100 100 100 100 100 100 100 100 56
0 0 0 0 0 2 2 1 0 5 48 100 100 100 100 98 92 92 81 100 100 94 8 5 5 23 11 5 5 85 34 18 93 100 100 100 100 100 100 100 100 100 100 93
0 0 5 5 82 21 9 5 3 2 5 58 100 100 100 100 100 100 87 96 100 100 100 98 17 6 5 5 4 1 77 15 62 100 100 100 100 100 100 100 100 100 94 100
0 3 5 5 32 100 72 6 8 5 1 92 99 100 100 51 91 77 77 16 88 100 100 99 6 4 0 0 0 1 6 92 100 100 86 92 79 100 100 100 100 100 96 99
0 1 5 0 8 78 5 5 5 5 1 6 100 100 9 11 5 26 100 100 83 29 75 31 15 5 0 0 2 21 48 78 49 35 98 100 100 100 91 100 100 100 100 100
5 15 2 2 5 4 5 0 0 0 0 5 13 100 41 5 60 85 96 100 100 9 5 4 0 2 5 22 47 33 9 3 41 100 100 100 93 97 100 100 100 99 99 58
5 5 5 2 0 2 2 0 0 0 0 1 20 100 6 5 34 94 100 49 99 42 4 0 3 4 5 7 5 2 5 65 100 100 69 68 52 58 31 41 59 51 57 98
20 88 5 5 0 2 0 0 0 1 5 2 9 84 59 5 62 66 83 24 6 0 0 5 5 4 0 0 0 1 5 5 5 5 4 5 4 5 46 86 32 90 100 100
100 100 10 5 2 1 0 0 5 1 0 5 4 62 12 5 9 36 26 56 78 5 4 2 2 0 0 0 4 5 5 5 5 4 0 1 83 93 98 100 100 100 100 100
98 91 7 5 1 1 0 0 0 0 0 0 18 5 5 1 0 1 3 5 5 4 1 5 5 0 0 0 0 5 5 0 0 1 5 5 52 96 100 100 100 100 100 100
76 89 9 7 0 51 0 0 0 0 0 0 2 1 0 0 0 0 0 0 2 5 0 0 0 0 0 0 2 1 0 3 5 5 5 5 14 77 100 84 90 100 99 99
100 100 14 3 1 33 8 0 0 4 29 0 0 0 5 0 0 0 1 5 5 3 0 1 0 2 5 5 5 5 5 5 5 5 5 14 56 68 55 42 89 100 100 43
99 20 5 20 12 81 68 5 0 3 11 0 0 0 0 0 0 0 0 0 5 5 1 4 5 5 5 39 76 39 5 6 21 48 57 68 72 44 100 99 99 100 100 97
100 98 62 5 78 100 100 31 0 0 4 3 0 0 2 5 5 0 0 0 0 5 5 5 5 5 5 5 5 10 36 62 82 91 73 77 94 100 97 52 14 5 13 19
100 100 97 60 100 100 95 5 2 0 0 5 1 0 2 5 16 5 5 1 0 4 5 5 5 5 7 5 17 91 100 100 84 89 98 72 28 7 10 29 10 12 31 48
100 100 100 96 5 48 100 28 5 1 0 0 0 0 0 2 6 5 7 5 5 5 4 5 5 5 5 5 11 6 16 38 13 8 5 5 5 28 46 49 70 80 36 17
100 100 100 52 5 5 13 90 5 4 29 0 0 0 0 0 4 5 5 8 18 5 5 5 7 6 5 5 7 53 39 79 35 10 5 20 55 79 89 66 64 32 5 22
100 100 100 28 87 43 98 31 8 98 100 17 5 5 5 8 5 5 5 5 40 68 63 50 11 8 36 62 90 81 97 41 5 5 28 69 55 6 6 5 5 33 12 5
100 100 100 98 100 93 100 100 100 100 100 100 62 7 27 25 32 21 43 10 14 11 5 5 22 82 100 100 100 100 35 31 54 43 36 9 5 5 5 5 5 24 23 5

GFSCGP_prec_cloud_042.txt.gz
Cloud_Cover
5 0 0 0 0 0 1 54 100 99 66 100 100 100 84 100 61 100 100 100 100 100 100 100 100 84 100 100 100 100 100 100 100 100 100 100 100 100 100 100 100 100 100 100
5 0 0 0 0 0 0 4 7 19 28 33 97 98 100 82 71 76 100 100 100 100 100 100 100 100 100 84 93 100 100 100 100 100 100 100 100 100 100 100 100 98 58 61
19 0 0 0 0 0 1 7 26 79 100 79 88 87 100 60 32 86 97 100 100 100 100 100 100 100 99 28 26 50 98 100 100 100 100 100 100 100 100 87 91 100 100 62
64 0 0 0 0 0 66 6 5 46 82 100 100 100 100 87 24 79 92 99 88 100 100 100 100 100 58 100 48 87 100 99 100 100 61 39 82 99 38 36 52 70 99 90
62 2 0 0 0 0 60 13 60 5 57 100 100 81 98 99 10 99 95 100 100 100 100 100 100 100 100 100 100 100 100 100 100 100 100 100 100 74 33 65 75 100 100 100
62 5 0 0 1 5 5 32 70 5 30 89 100 78 73 8 89 93 80 48 96 100 100 100 100 100 100 100 98 80 78 86 88 88 84 100 100 97 91 74 48 64 96 100
62 5 4 0 0 4 5 11 97 99 86 56 99 100 99 77 68 41 47 84 91 100 100 99 96 94 96 14 50 75 41 96 92 100 100 100 100 100 100 100 100 100 100 100
62 5 5 0 0 10 1 21 100 95 65 94 39 64 54 100 100 96 6 9 42 48 84 76 86 44 17 46 15 80 100 77 100 100 100 100 100 100 100 100 100 100 100 100
63 5 5 0 0 2 15 6 38 7 5 5 11 82 16 86 100 100 100 39 5 16 30 27 31 6 5 5 10 81 70 92 100 100 100 100 100 100 100 100 100 100 100 100
59 17 5 0 0 1 12 26 37 30 92 33 82 12 6 49 99 100 100 92 89 75 55 24 25 5 5 5 5 5 28 39 36 71 100 100 100 100 100 100 100 100 100 100
5 5 36 0 1 26 4 5 6 29 30 100 98 100 86 5 5 90 100 100 61 6 78 96 52 8 5 5 5 5 5 2 5 52 98 100 100 100 100 100 100 100 100 100
0 5 6 2 11 7 10 88 6 5 57 2 4 91 100 14 4 6 5 15 16 93 100 46 100 69 5 5 2 0 0 2 4 23 43 89 100 100 100 100 100 100 100 100
3 5 38 5 3 5 5 0 3 5 4 0 0 32 98 5 5 5 1 5 41 99 100 100 77 36 95 22 5 5 1 0 5 18 30 61 98 100 100 100 100 100 100 100
5 5 5 4 4 15 5 0 5 5 0 0 0 16 5 5 5 4 4 5 9 95 99 86 67 91 100 72 62 33 13 23 5 5 3 12 51 97 100 100 100 100 100 100
6 100 11 3 21 9 5 3 1 1 0 1 1 5 1 1 5 5 5 5 88 97 13 11 18 36 98 88 62 62 38 8 28 52 3 10 46 73 63 50 15 64 86 71
100 100 25 5 25 5 60 1 4 3 1 0 0 1 0 0 1 12 19 5 6 53 100 74 6 5 5 5 3 23 40 5 14 5 5 5 5 5 5 24 50 55 80 80
100 100 85 60 5 5 100 4 0 0 5 0 0 0 0 0 0 1 1 3 0 0 52 14 39 5 5 5 5 0 0 0 0 1 5 6 5 5 19 68 91 100 100 100
100 100 60 17 6 54 49 40 2 5 0 4 0 0 0 0 0 0 2 2 0 0 5 5 5 4 0 3 4 5 4 2 1 0 0 3 5 5 5 5 22 71 94 94
100 100 90 48 88 100 99 55 4 5 1 5 0 0 0 0 0 0 0 2 4 4 0 0 1 2 4 5 5 5 5 5 5 5 5 22 18 36 51 73 96 83 99 100
100 100 69 82 100 100 100 18 5 3 6 0 0 0 0 0 0 0 0 0 2 2 5 5 3 5 8 57 86 96 75 50 65 72 64 62 93 100 100 100 100 100 100 96
100 100 100 100 100 100 100 100 27 5 1 0 0 2 0 0 1 0 0 0 8 18 5 5 5 5 5 5 5 14 21 32 46 73 93 99 100 100 98 96 95 84 20 6
100 100 100 100 100 100 100 95 61 10 0 5 6 6 0 0 0 0 3 0 2 7 37 65 72 31 40 57 54 62 73 99 92 82 81 87 97 99 100 94 88 57 33 14
100 100 100 100 100 100 100 100 100 5 5 5 78 63 6 3 4 0 1 5 0 2 9 64 85 90 69 61 72 75 83 86 88 99 100 100 90 66 62 14 5 5 6 14
100 100 100 100 100 100 100 100 7 5 5 65 100 99 44 43 5 3 0 5 5 5 5 7 57 99 100 95 92 91 93 92 88 56 37 26 5 5 5 5 5 5 6 9
100 96 100 100 100 100 100 91 16 5 42 100 100 100 100 100 100 76 31 28 5 5 5 5 11 53 49 76 83 72 58 50 51 92 63 28 14 5 5 5 5 5 5 26
100 100 100 100 100 100 100 34 32 81 100 100 100 95 87 100 100 84 93 100 100 38 7 5 5 5 6 44 62 56 59 100 64 5 6 5 5 5 7 5 5 5 5 5

GFSCGP_prec_cloud_045.txt.gz
Cloud_Cover
6 99 66 85 73 24 75 89 37 85 64 100 100 93 96 23 8 100 98 100 100 100 100 100 100 100 100 100 100 100 100 100 100 100 100 100 100 100 100 100 100 100 100 100
6 100 100 3 0 0 5 80 100 98 54 9 89 100 100 88 16 100 66 100 100 100 100 100 100 100 83 100 100 100 100 100 100 100 100 100 100 100 100 100 100 100 100 99
20 100 100 0 0 1 5 78 100 42 100 47 60 95 100 82 21 7 6 100 100 100 100 100 100 100 25 17 100 96 81 100 100 100 100 100 100 100 100 100 100 100 99 73
41 100 100 0 1 4 100 51 16 2 5 98 100 99 96 100 50 29 32 100 100 100 100 100 100 100 100 18 92 12 26 97 100 100 100 100 100 100 100 100 100 100 100 100
8 100 100 33 4 12 93 13 3 24 98 100 84 44 95 98 96 70 91 95 100 100 28 98 100 100 23 23 3 5 5 33 100 100 100 100 100 100 100 98 98 97 100 100
5 45 100 92 4 4 82 4 12 28 60 96 54 87 100 99 100 100 90 77 55 42 84 100 100 100 100 100 97 53 52 44 76 78 96 100 100 92 94 98 100 97 100 99
5 72 100 100 4 0 5 98 66 100 98 17 99 24 99 100 45 23 54 95 90 85 97 100 100 100 100 100 100 100 100 92 99 45 94 92 51 96 97 100 100 100 100 100
5 54 100 100 6 35 5 89 59 100 100 100 69 1 7 32 5 18 98 6 43 100 98 100 86 49 5 5 5 5 8 87 69 87 98 100 100 100 100 100 100 100 100 100
47 78 100 100 7 12 88 63 83 26 6 20 85 20 2 1 3 38 10 59 70 62 6 5 5 12 5 12 72 64 100 87 62 69 100 100 100 100 100 100 100 100 100 100
99 99 100 100 5 6 62 73 65 50 97 54 73 97 100 77 1 27 100 95 41 100 37 5 5 5 5 5 37 39 35 46 46 23 100 82 100 100 100 95 100 100 100 100
100 100 79 25 16 40 4 29 60 100 90 94 92 92 99 38 5 5 5 38 85 5 34 11 62 17 9 22 22 25 48 68 79 24 38 36 28 84 100 100 100 100 100 100
90 100 91 90 89 25 100 49 99 100 92 36 5 4 99 62 4 28 92 100 5 5 2 35 100 99 31 5 5 12 7 27 92 100 26 100 50 87 100 100 100 100 100 100
100 100 72 100 91 64 96 95 98 100 94 80 98 4 96 6 60 5 4 5 6 5 0 4 20 22 14 59 5 5 11 22 25 98 100 100 95 100 100 100 100 100 100 100
100 100 100 92 89 71 99 32 71 100 98 39 5 88 100 99 82 34 29 71 5 2 1 3 5 11 100 53 52 100 100 83 63 76 99 100 100 100 100 100 100 100 100 100
100 100 100 82 85 100 100 86 94 100 96 93 29 100 100 84 58 65 32 15 5 5 5 11 6 5 2 7 33 95 55 35 24 46 88 100 100 100 100 100 100 100 91 93
100 100 100 19 86 62 79 99 83 100 96 100 100 37 97 5 5 5 0 0 0 0 4 0 0 34 5 1 4 32 34 93 98 43 47 40 17 7 12 9 6 16 38 46
100 100 100 100 100 100 92 100 5 53 20 43 32 5 84 5 5 5 1 0 0 0 0 0 0 0 23 28 23 45 33 34 3 2 2 1 1 1 2 2 3 5 14 45
100 100 100 100 88 100 100 94 51 97 5 5 5 5 3 4 4 0 0 0 0 0 0 0 0 2 5 5 5 5 5 5 3 5 5 5 5 5 5 8 6 50 81 99
100 100 100 100 67 100 100 100 100 84 75 63 5 5 4 5 0 0 0 0 0 0 0 0 2 5 5 5 30 13 5 4 5 5 15 48 79 94 98 100 91 72 98 96
100 100 100 100 48 86 100 100 91 5 99 3 23 78 5 5 0 3 0 0 0 0 0 0 0 1 4 5 5 5 5 5 5 5 5 5 15 44 72 88 99 100 100 94
95 100 100 100 68 98 100 100 100 16 100 5 43 13 38 31 10 2 0 0 0 0 0 0 0 2 0 5 59 29 36 48 15 36 63 74 87 98 100 100 78 46 49 87
100 100 100 100 78 67 100 100 100 100 37 27 100 6 5 84 74 5 1 0 0 0 0 0 5 4 5 5 63 100 100 98 97 100 99 88 82 84 82 83 87 100 89 33
100 100 100 100 100 100 100 100 100 100 100 5 80 34 30 76 28 97 83 5 5 5 5 5 5 5 5 5 5 82 100 100 100 100 100 100 100 84 99 100 89 68 31 7
100 100 100 100 100 100 100 100 100 100 98 98 100 100 45 5 5 88 100 98 87 71 6 25 9 7 33 5 5 34 54 60 55 38 24 7 86 96 44 16 5 5 5 5
99 100 100 100 100 100 100 100 100 100 100 100 100 93 78 5 15 86 100 100 78 46 12 29 98 100 96 35 46 22 76 89 98 46 38 97 87 6 5 62 75 5 26 73
97 88 100 100 100 100 100 100 100 100 100 100 100 100 26 98 36 45 69 100 100 24 5 5 91 76 56 81 87 100 94 16 52 98 77 9 5 6 10 14 46 56 52 22

GFSCGP_prec_cloud_048.txt.gz
Cloud_Cover
5 0 0 19 100 24 95 37 92 100 24 6 78 86 100 100 100 17 5 100 100 100 100 100 100 100 100 100 100 100 100 100 100 100 100 100 100 100 100 100 100 100 100 100
100 6 3 22 100 30 3 2 74 100 92 5 97 25 100 100 52 5 69 100 100 100 100 100 100 100 99 100 100 100 100 100 100 100 100 100 100 100 100 100 100 100 100 100
75 58 98 41 99 46 2 2 88 6 41 0 5 84 80 94 97 60 100 99 100 100 100 100 100 100 100 100 100 100 100 100 100 100 100 100 100 100 100 100 100 100 100 100
100 50 86 5 31 100 46 44 90 32 19 23 3 11 99 93 43 90 100 100 100 100 100 100 99 100 100 99 85 100 100 100 100 100 100 100 100 100 100 100 100 100 100 100
100 48 5 5 8 100 9 74 66 13 2 29 89 7 100 6 9 99 58 41 100 64 100 100 100 100 88 33 1 48 100 100 90 93 100 100 100 41 92 100 100 100 81 57
100 73 75 30 5 62 100 10 5 3 2 3 18 100 98 99 71 92 92 8 100 100 97 76 100 100 100 87 92 5 5 15 62 40 79 86 100 100 100 100 100 100 93 100
100 15 85 66 5 41 76 5 12 91 50 0 4 12 99 20 100 98 83 6 75 100 100 98 25 96 100 100 100 100 100 99 86 100 99 81 84 99 91 79 50 99 100 100
100 90 100 18 42 48 79 11 40 89 84 97 55 99 84 0 65 68 5 9 75 82 71 96 95 100 100 100 100 100 100 100 100 100 100 100 74 100 100 96 82 100 87 100
100 100 76 100 100 63 98 42 12 100 41 90 58 52 100 7 12 2 3 0 5 7 60 64 13 15 5 14 18 5 12 5 5 5 81 71 100 100 100 100 62 93 100 100
99 100 90 100 100 100 100 79 23 78 58 33 52 17 100 60 41 56 3 0 18 23 5 27 36 51 57 51 27 12 31 80 16 18 5 94 100 100 89 98 100 100 80 79
100 100 100 100 100 100 100 47 5 46 28 10 1 84 36 100 100 29 5 0 0 1 5 5 5 79 100 94 78 40 5 13 35 88 84 72 98 41 28 93 100 100 100 100
100 100 100 100 100 92 54 71 19 6 47 95 5 5 72 92 72 55 5 0 4 0 0 2 5 59 99 60 39 10 41 5 91 100 100 77 76 64 34 58 82 100 100 100
100 100 100 99 100 100 100 98 6 5 5 5 12 18 70 3 0 0 0 0 0 5 0 0 0 0 1 4 5 5 3 4 55 8 26 100 97 100 100 100 100 100 100 100
100 100 76 100 100 100 98 100 98 59 92 62 84 12 0 44 29 67 4 54 46 25 5 0 0 0 0 0 0 0 2 1 72 80 18 76 100 100 100 100 100 100 100 100
100 75 100 100 100 100 100 100 100 100 65 24 6 5 3 78 100 1 70 36 61 5 0 4 2 0 0 0 0 2 32 30 57 60 54 64 81 100 100 100 100 100 100 100
100 68 100 100 100 100 100 100 100 100 6 61 10 94 21 58 89 18 94 5 0 0 0 0 0 0 0 0 12 0 6 0 12 5 60 100 100 100 100 100 100 100 51 30
89 10 99 92 100 100 100 100 100 100 100 100 100 56 66 80 70 10 8 8 1 0 0 0 0 0 0 14 46 83 41 42 35 61 85 68 57 23 18 23 13 24 5 5
66 80 100 98 100 100 100 100 96 88 35 100 59 98 78 8 42 4 29 4 0 0 0 0 0 0 7 1 31 37 30 8 5 5 4 5 5 9 23 26 23 21 32 37
100 100 51 100 100 100 100 100 100 92 100 100 100 100 100 90 97 7 0 0 0 0 0 0 0 0 0 0 0 0 5 5 5 83 61 5 5 5 5 5 9 5 10 70
100 93 85 100 100 100 100 100 100 100 100 100 100 100 79 29 85 6 24 3 5 5 5 0 0 0 0 0 0 5 5 5 3 1 5 6 9 42 26 82 100 70 93 67
100 100 85 100 100 100 100 100 100 100 100 100 92 68 15 39 7 98 72 86 100 38 5 5 5 1 0 0 0 0 4 3 4 0 5 11 100 96 84 61 46 57 87 99
100 100 100 99 100 98 100 100 100 100 100 97 5 94 17 63 82 100 100 84 10 24 83 100 100 77 5 5 5 5 5 5 5 5 6 22 12 13 20 60 65 56 100 99
99 100 93 100 25 70 100 100 100 100 100 86 72 96 100 73 63 99 100 99 56 68 45 70 99 100 42 5 5 5 5 5 5 38 10 21 80 100 100 75 96 100 84 56
100 100 53 97 59 88 100 100 100 100 97 100 91 90 100 88 100 100 74 41 80 73 79 62 79 100 100 98 18 5 99 32 19 60 100 100 100 89 44 95 79 44 5 7
100 100 97 32 100 100 100 100 100 100 100 100 100 100 100 100 100 100 97 78 15 62 97 38 54 92 100 100 100 79 99 88 100 100 100 100 85 68 67 84 57 6 5 26
99 40 39 97 100 100 100 100 100 100 100 100 100 100 100 100 100 100 100 100 100 100 100 26 73 78 62 92 92 93 100 62 48 84 100 100 33 57 62 55 50 95 100 100

GFSCGP_prec_cloud_051.txt.gz
Cloud_Cover
100 93 90 5 1 98 99 46 86 97 100 100 86 16 100 100 86 5 19 100 96 92 100 86 98 51 81 29 100 100 100 100 100 100 100 100 100 100 100 100 100 100 100 100
100 58 72 89 1 54 98 94 8 97 41 42 6 68 98 100 100 97 5 91 96 100 100 100 100 100 100 100 55 79 58 100 100 100 100 100 100 100 100 100 100 100 100 100
52 95 93 58 4 31 5 7 59 50 71 100 53 6 20 38 16 100 94 5 47 100 100 100 100 100 100 100 88 46 99 100 100 100 100 100 100 100 100 100 100 100 100 100
94 28 83 100 61 6 5 6 29 6 3 55 17 1 5 43 4 14 100 99 39 96 100 100 100 100 100 100 100 98 97 51 98 97 100 100 100 100 100 100 96 100 100 100
100 42 96 100 54 9 8 12 86 5 5 0 4 3 100 13 14 5 34 20 33 60 100 100 100 62 83 69 76 100 100 100 100 100 100 100 100 100 100 100 100 100 100 100
100 54 62 81 41 6 48 75 22 5 8 5 0 56 37 93 96 5 28 5 48 7 56 100 100 100 99 96 33 9 7 97 100 100 100 100 100 100 100 100 100 100 100 99
100 100 100 100 100 42 53 97 23 5 6 5 5 71 41 35 52 2 74 31 4 9 5 100 100 99 100 100 100 18 5 3 17 100 98 100 83 8 50 95 60 100 100 100
100 100 100 99 100 84 99 100 89 5 16 5 4 17 4 2 4 3 4 1 5 3 52 42 58 100 73 100 100 100 100 100 78 14 30 35 100 95 22 40 40 11 19 90
100 100 100 95 100 100 97 95 38 40 44 10 68 98 51 6 65 62 10 5 5 0 3 77 74 69 72 99 99 100 100 92 90 100 100 100 100 21 65 13 43 98 98 100
100 100 100 100 88 99 100 100 100 100 99 52 88 23 80 57 72 4 10 4 0 0 2 0 28 95 16 70 90 76 100 100 100 100 92 65 81 49 34 45 90 83 51 89
100 95 100 100 100 100 100 100 100 89 100 59 18 26 29 5 44 89 51 19 4 0 0 0 0 9 100 37 61 68 100 100 100 100 100 98 62 100 100 100 100 100 100 99
100 100 100 100 100 100 100 100 100 100 20 96 7 7 66 7 47 11 5 8 0 0 0 0 0 0 0 6 100 100 100 100 100 100 100 100 100 100 100 100 100 100 100 100
100 90 87 99 100 100 100 100 100 100 55 96 100 73 64 92 90 78 23 2 0 0 0 2 2 0 0 0 0 76 100 100 100 100 100 100 100 100 100 100 100 100 100 98
100 100 100 100 100 100 100 100 100 100 77 100 100 89 99 29 100 100 5 51 5 0 0 0 0 0 0 0 0 0 16 100 100 100 100 100 100 78 89 94 100 100 100 100
100 100 100 100 100 100 100 100 100 100 76 100 100 100 100 44 45 30 55 4 3 5 3 5 1 0 0 0 0 0 0 3 80 7 26 67 69 67 70 100 100 100 100 100
100 100 100 100 100 100 100 100 99 100 100 100 100 100 100 35 6 4 3 60 34 42 1 0 0 0 0 0 0 0 0 0 0 36 64 48 44 100 89 100 100 100 100 100
100 100 100 100 100 100 62 87 100 100 100 100 100 100 100 56 36 100 39 11 23 5 3 0 0 0 0 0 0 0 0 0 0 5 48 68 73 100 100 100 100 100 100 100
94 94 100 100 100 84 27 97 100 100 100 100 100 100 100 78 100 100 100 100 16 75 4 0 0 0 0 0 4 0 0 0 0 14 58 55 60 57 100 100 100 64 5 5
100 92 100 93 100 93 43 99 100 100 100 100 100 100 100 24 13 100 100 6 10 6 12 3 0 0 0 0 0 5 4 0 0 21 85 62 9 7 35 36 8 3 5 5
100 100 99 77 71 20 100 100 100 100 100 100 100 100 100 88 67 100 100 88 5 45 100 98 5 5 5 4 9 53 18 3 3 0 4 9 90 2 2 4 5 5 8 19
87 100 100 92 31 44 55 100 100 100 99 100 100 100 100 100 100 100 100 33 39 98 100 86 45 25 5 6 5 5 8 5 5 5 5 1 5 5 5 7 13 5 37 5
100 100 100 100 79 39 5 96 98 92 100 100 100 100 100 90 64 71 84 100 100 100 29 57 73 60 53 70 40 5 13 5 5 5 5 4 5 5 6 8 21 44 57 51
100 100 100 66 6 11 98 95 100 100 100 100 93 91 100 54 100 100 100 96 100 86 57 5 35 56 39 33 98 99 10 6 5 5 47 69 5 9 14 6 83 98 50 54
100 100 100 55 51 100 100 100 100 100 100 100 100 100 100 100 100 100 96 100 100 100 47 87 32 5 5 59 100 100 51 34 57 48 14 24 5 5 32 63 97 100 90 99
100 100 100 94 100 100 100 100 100 100 100 100 100 100 100 100 100 100 90 100 100 100 96 100 100 100 100 100 100 100 98 17 6 78 65 73 27 35 97 100 100 98 100 86
81 10 100 100 100 100 100 89 100 100 100 100 99 93 90 100 100 100 100 100 100 80 100 100 100 100 100 100 100 100 100 85 94 100 100 92 99 98 100 100 100 100 100 100

GFSCGP_prec_cloud_054.txt.gz
Cloud_Cover
97 97 100 83 1 1 0 0 0 3 73 8 5 1 0 44 100 35 12 1 65 11 6 41 82 57 100 100 100 98 94 100 100 100 100 100 100 100 100 83 100 97 100 100
76 100 91 44 5 4 0 5 4 7 92 91 22 38 0 6 100 98 54 45 37 25 20 46 80 70 100 100 84 92 100 100 100 100 100 100 100 100 100 100 100 100 100 100
93 93 92 5 88 100 1 5 4 10 76 96 7 4 5 15 88 75 76 5 5 78 58 45 99 89 100 100 100 90 100 100 100 100 100 100 100 100 100 100 100 100 100 100
100 100 100 83 54 93 32 5 5 5 51 79 22 6 0 2 5 52 4 11 51 74 100 82 39 100 99 100 100 100 95 100 100 100 100 100 100 100 100 100 100 100 100 100
100 100 100 100 78 29 52 7 37 5 27 9 0 0 0 0 3 89 91 25 24 7 33 99 100 100 100 100 100 100 100 100 100 100 100 100 100 100 100 100 100 100 100 100
100 100 100 100 92 76 63 99 88 5 5 5 1 2 0 0 82 67 41 34 73 8 4 45 96 100 100 100 95 86 92 96 100 100 100 100 100 100 100 100 100 100 100 95
90 100 87 100 100 82 99 100 94 56 99 8 5 0 0 4 0 0 3 99 9 3 4 5 45 50 100 100 100 38 5 5 5 15 92 94 89 100 99 100 61 100 100 100
5 46 100 100 87 93 100 31 100 23 100 5 39 4 0 1 16 0 0 1 54 3 0 4 5 5 14 100 100 100 98 99 70 5 14 26 92 99 100 92 100 100 98 99
11 62 99 98 100 100 100 75 66 13 100 100 36 7 5 5 5 0 0 5 84 0 0 0 4 13 49 17 38 99 100 100 100 100 100 100 100 94 99 63 99 100 100 100
98 7 66 100 100 100 100 46 5 96 100 78 89 95 15 5 5 5 3 0 0 2 3 2 1 31 4 15 100 87 74 89 94 99 91 100 100 100 100 100 100 100 100 100
100 73 100 100 96 90 100 100 98 82 100 100 100 12 79 72 5 3 1 5 2 2 0 0 0 0 18 70 67 100 100 100 97 100 100 98 52 100 100 100 100 100 100 100
100 100 100 100 100 94 56 56 32 7 98 100 98 71 17 5 5 5 5 6 4 0 0 0 0 0 1 3 19 17 23 72 100 100 100 100 100 100 100 100 100 100 100 100
100 60 100 100 100 100 100 100 100 99 9 35 100 100 5 100 22 19 2 5 4 0 0 0 0 0 0 0 0 4 88 99 100 100 91 100 100 98 100 100 100 100 100 100
100 100 62 100 100 100 100 100 100 71 6 77 91 100 10 42 97 94 98 30 88 6 3 0 0 0 0 0 0 0 0 1 59 100 100 100 89 85 100 100 100 100 100 100
100 100 99 100 100 100 100 100 100 99 65 45 90 100 98 49 100 95 96 43 43 14 24 1 0 0 0 0 1 3 0 1 5 5 20 97 100 100 100 100 100 100 100 100
100 100 100 100 100 100 100 100 100 100 100 100 81 75 100 88 5 74 100 100 18 0 13 5 5 0 0 0 0 0 0 0 0 91 100 100 100 100 100 100 100 100 100 100
100 100 100 100 100 100 100 100 100 100 100 100 100 100 100 100 100 100 94 68 100 41 18 34 5 5 1 0 0 0 4 8 20 100 100 100 100 100 100 100 100 100 100 100
100 100 100 100 100 100 96 100 100 100 100 100 99 96 100 100 99 95 100 96 86 5 46 6 6 39 4 0 0 4 18 45 91 97 100 100 100 100 100 100 81 98 100 100
100 100 100 99 96 100 100 100 100 100 100 100 100 100 100 100 100 97 100 100 92 100 100 74 68 3 1 14 5 5 17 63 91 100 100 100 100 100 100 100 100 100 99 100
8 100 100 100 100 42 100 100 100 100 100 100 100 100 100 100 79 65 100 100 100 98 100 100 8 3 5 84 30 5 65 40 25 50 83 98 99 99 45 73 64 21 5 4
66 100 100 100 100 66 31 100 100 100 98 100 100 92 98 100 71 93 100 100 100 100 100 96 78 36 32 13 1 13 4 43 48 40 100 100 100 34 24 26 5 5 5 5
23 97 100 100 100 100 89 99 100 92 97 100 100 92 41 83 100 78 65 100 100 98 93 100 100 32 5 4 5 5 5 5 13 82 100 100 72 100 39 7 5 5 5 5
4 63 100 100 100 100 100 100 100 85 60 100 100 88 8 51 99 100 100 100 100 100 100 100 100 90 95 5 5 5 11 63 100 100 100 94 24 62 85 60 5 47 69 53
0 92 100 100 100 100 100 100 100 76 40 100 100 100 100 82 87 95 100 100 100 100 100 100 100 81 90 100 100 100 100 100 100 100 100 100 84 68 73 97 100 100 67 10
10 100 100 100 100 100 100 92 82 93 100 100 100 100 75 23 97 100 100 100 100 100 100 100 100 100 100 100 100 100 100 100 100 100 100 100 100 100 96 91 42 78 100 100
96 100 100 100 100 72 100 4 26 89 88 100 100 100 97 96 100 100 100 100 100 100 100 100 100 100 100 100 100 100 100 100 100 100 100 100 100 100 100 100 100 100 100 100

GFSCGP_prec_cloud_057.txt.gz
Cloud_Cover
84 96 53 100 90 7 5 0 5 5 0 0 0 0 0 0 0 18 72 62 40 25 1 19 83 100 100 100 99 31 100 100 100 100 100 100 100 100 100 100 100 100 100 100
6 6 90 100 71 38 5 5 5 29 16 0 2 9 0 0 0 0 36 78 5 23 99 87 100 100 100 100 100 100 90 100 100 100 100 100 100 100 100 100 100 100 100 100
5 11 99 81 13 58 6 5 18 5 50 5 4 0 0 0 5 0 1 4 5 4 77 100 100 97 100 100 100 100 92 100 100 100 100 100 100 100 100 100 100 100 98 100
38 5 98 25 93 77 11 5 5 5 5 5 32 4 0 0 0 0 0 0 0 0 0 42 95 100 33 100 100 100 100 59 100 100 100 100 100 100 100 100 100 100 100 100
92 2 49 100 100 100 96 100 7 5 5 9 96 11 0 0 0 0 1 1 8 5 0 9 49 99 80 81 61 82 100 99 100 100 100 100 100 100 100 100 100 100 100 100
77 6 40 99 100 100 66 100 93 5 5 34 58 77 22 1 2 3 2 3 6 5 2 4 1 48 100 87 31 30 53 97 100 100 95 100 100 100 100 100 100 100 100 100
100 7 5 5 98 99 100 100 100 7 98 74 24 56 79 11 2 0 5 0 0 0 0 0 0 5 51 100 79 30 6 9 7 46 96 100 100 100 100 100 100 100 100 100
96 93 18 50 25 100 90 99 100 40 98 84 95 100 22 55 14 5 0 0 0 0 0 0 0 0 5 43 100 98 27 5 14 45 25 22 75 86 100 100 100 100 100 100
100 100 98 7 71 92 83 88 58 8 99 89 52 100 8 98 90 5 3 0 0 0 1 0 0 0 2 5 30 92 100 100 66 37 16 100 57 52 99 97 70 79 99 100
100 100 99 100 51 11 36 100 31 67 100 100 21 88 100 35 96 45 5 1 0 0 0 1 4 0 13 54 6 13 66 92 100 100 100 100 100 100 100 99 84 90 100 98
98 28 100 98 9 24 33 100 100 100 99 100 16 89 100 36 5 82 76 17 1 1 0 0 0 0 0 5 15 72 68 16 52 100 100 100 81 80 96 91 86 100 100 100
100 100 100 98 97 50 88 74 100 100 100 94 5 64 98 49 12 5 24 65 24 5 4 0 0 0 0 0 0 5 98 100 86 99 85 100 100 77 99 100 100 100 100 100
100 100 98 100 97 73 47 96 100 100 100 100 15 100 7 53 5 28 70 98 23 81 5 5 0 0 0 0 0 0 0 10 90 100 100 95 99 100 32 98 100 100 100 100
100 80 100 100 100 100 100 100 100 100 100 100 88 97 48 28 64 8 64 100 100 8 5 5 3 4 0 0 0 0 0 0 0 2 92 100 100 100 100 100 100 100 100 100
81 97 97 100 100 100 100 100 100 15 67 49 100 100 100 4 9 43 95 100 100 100 5 5 5 5 5 8 1 0 0 0 0 0 0 8 33 73 100 100 100 100 100 100
100 85 26 100 100 100 100 53 100 100 100 100 100 100 100 92 5 5 31 64 100 100 100 12 80 10 5 5 6 9 1 0 0 0 20 54 78 100 100 100 100 100 100 100
100 100 100 69 100 100 100 54 91 100 100 100 100 100 100 100 52 31 8 73 94 100 100 92 82 45 3 5 5 5 27 64 35 11 5 6 83 99 100 100 100 100 100 100
100 100 100 100 100 92 100 100 87 16 100 100 100 100 100 100 100 100 88 30 52 100 100 100 100 5 7 10 36 12 5 0 5 20 59 80 94 79 100 100 100 100 100 100
75 100 100 100 100 45 73 100 100 100 100 100 100 100 100 100 100 100 76 54 30 78 100 100 38 51 100 99 82 20 49 41 51 94 95 99 100 100 100 100 100 100 100 100
42 99 90 100 100 100 100 74 100 100 98 100 100 100 94 100 100 100 99 17 71 27 92 100 100 100 99 36 81 75 79 96 100 100 100 100 100 100 100 100 100 100 100 100
100 100 100 100 100 76 100 100 100 100 100 100 100 92 14 50 100 100 100 100 94 100 82 100 100 100 100 100 100 100 82 84 95 100 100 100 100 100 100 100 100 100 100 100
26 47 28 64 88 58 96 100 100 100 100 100 100 100 97 96 100 100 100 100 100 100 100 100 100 100 100 100 100 100 100 55 36 75 100 100 100 100 100 100 100 100 100 100
0 1 14 2 2 1 11 78 99 100 100 100 100 100 100 100 100 100 20 37 100 100 100 100 100 100 100 100 100 100 100 92 65 85 100 100 100 100 100 100 100 100 100 100
3 2 0 0 0 0 93 100 50 100 100 100 100 100 100 60 97 100 99 37 85 100 100 100 100 100 100 100 100 100 100 100 72 74 78 99 100 100 100 100 100 100 100 100
8 10 1 1 0 0 98 100 100 100 100 100 100 100 100 73 99 85 100 97 100 100 100 100 100 100 100 100 100 100 100 100 79 97 100 100 100 100 100 100 100 100 100 100
4 68 11 57 13 78 96 100 100 100 100 100 100 100 100 100 100 100 100 100 100 100 97 99 100 100 100 100 100 100 100 100 100 100 100 100 100 100 100 100 100 100 100 100

GFSCGP_prec_cloud_060.txt.gz
Cloud_Cover
5 98 64 100 31 8 26 5 7 31 5 2 5 0 0 0 9 0 0 92 100 40 19 70 100 100 100 100 100 100 100 100 100 100 100 100 100 90 100 100 100 100 100 100
3 100 87 100 100 51 13 26 31 5 5 5 1 4 0 0 0 0 2 3 38 60 100 97 100 100 100 100 100 100 100 100 100 100 100 100 100 100 100 100 100 100 100 100
8 100 58 90 40 96 61 94 45 5 58 5 5 5 1 0 0 0 0 0 0 6 100 100 100 100 100 91 100 100 100 100 100 100 100 100 100 100 100 100 100 100 100 100
69 100 96 31 5 5 8 99 68 7 22 88 5 25 5 4 0 0 0 0 0 0 46 100 100 100 100 42 82 100 98 100 100 100 100 100 100 100 100 100 100 100 100 100
100 100 18 5 8 33 98 44 74 7 79 51 100 5 5 5 2 0 0 0 0 0 2 96 100 99 100 100 70 100 99 98 100 100 98 100 100 100 100 100 100 100 100 100
100 100 8 100 74 91 89 79 77 5 75 100 100 33 6 7 5 2 0 0 2 0 0 6 25 20 92 100 100 100 98 98 99 68 55 98 99 100 100 100 100 100 100 100
100 100 100 18 5 38 6 56 12 5 98 100 100 85 95 5 6 5 4 0 0 0 0 8 54 64 44 71 100 99 69 89 87 46 94 95 96 100 100 100 100 100 100 100
100 94 98 87 5 5 92 64 98 99 91 100 100 100 100 64 5 5 5 4 0 0 0 0 0 2 1 6 89 100 99 56 2 6 32 72 100 100 100 100 100 100 100 100
100 100 100 100 100 37 38 67 94 19 71 100 95 100 100 100 5 10 5 16 7 0 0 0 0 0 0 0 1 16 76 76 40 5 5 5 5 5 5 5 6 5 47 5
100 100 100 100 98 61 88 95 100 38 59 100 70 100 100 100 74 5 9 5 5 5 0 0 0 0 0 0 3 85 20 5 68 100 100 99 95 12 5 28 70 100 52 13
100 100 100 94 50 99 96 58 96 22 13 38 100 100 100 100 100 96 5 5 5 34 17 5 0 0 0 10 2 5 5 5 48 5 28 98 100 100 99 100 89 100 96 96
100 100 100 100 100 99 96 65 100 100 18 54 100 100 100 100 99 100 100 26 5 5 5 5 12 0 0 0 0 0 3 5 34 86 42 69 80 92 100 100 62 79 99 96
100 100 100 100 100 10 92 83 66 31 95 99 100 100 100 68 100 100 100 96 85 19 10 5 5 5 0 0 0 0 0 0 10 90 100 100 100 100 96 70 80 48 81 89
93 100 100 100 100 77 19 70 98 56 12 54 55 100 100 75 96 100 100 65 100 100 100 35 53 5 5 5 0 0 0 0 0 0 0 8 75 74 91 91 56 97 87 100
100 100 100 100 100 39 5 100 64 5 33 5 100 100 100 99 76 100 100 96 96 100 100 100 100 53 23 6 6 0 0 0 0 0 0 0 0 2 18 70 50 100 100 100
100 100 100 100 100 100 100 100 100 100 57 49 100 100 100 100 100 100 100 100 85 100 100 100 100 100 85 9 32 38 1 0 0 0 0 0 0 0 0 0 14 100 100 100
92 100 99 100 100 100 100 100 100 84 98 100 45 88 100 100 100 100 100 100 92 95 100 100 100 100 84 100 100 100 100 44 21 1 0 0 0 3 2 12 52 99 98 100
100 82 94 100 100 95 100 100 100 99 100 55 100 100 100 100 100 100 100 100 100 100 98 96 36 100 100 100 100 100 44 58 100 96 9 5 5 5 33 91 96 100 100 100
100 100 100 100 100 48 99 100 100 100 100 55 10 28 7 90 100 100 100 100 100 100 100 87 99 98 100 100 100 100 100 97 100 30 85 61 26 77 100 100 100 100 100 100
100 100 100 100 83 20 99 100 100 100 52 100 100 100 42 88 45 100 100 100 100 100 100 100 100 100 97 100 100 100 100 100 9 17 76 97 100 100 100 100 100 100 100 100
100 100 100 100 100 100 100 100 100 100 100 100 79 46 94 100 100 86 100 100 100 100 100 100 100 100 100 97 100 93 100 90 88 100 100 100 100 100 100 100 100 100 100 100
39 73 98 100 97 89 100 100 100 100 100 100 100 87 46 100 100 100 100 100 99 100 100 100 100 100 100 100 100 100 96 100 100 100 100 100 100 100 100 100 100 100 100 100
0 1 12 2 6 0 4 70 100 100 100 98 100 100 100 100 100 100 100 100 100 100 100 96 99 100 100 100 100 100 100 100 100 100 100 100 100 100 100 100 100 100 100 100
0 0 0 0 0 0 0 0 0 7 98 100 25 75 96 100 100 81 94 100 100 100 100 100 100 100 100 100 100 100 100 100 100 100 100 100 100 100 100 100 100 100 100 100
5 3 1 1 0 0 0 0 0 3 100 100 100 100 100 88 80 100 88 66 94 100 100 100 100 100 100 100 98 100 100 100 100 100 100 100 100 100 100 100 100 100 100 100
62 11 3 0 8 82 14 1 0 0 0 100 100 100 100 100 99 100 83 91 82 92 100 100 100 80 100 100 100 100 100 100 100 100 100 100 100 100 100 100 100 100 100 100

GFSCGP_prec_cloud_063.txt.gz
Cloud_Cover
27 5 72 5 33 16 4 6 20 68 34 72 3 4 0 0 0 0 0 0 96 100 52 100 100 100 100 100 100 100 100 100 100 100 100 100 100 100 100 100 100 100 100 100
6 85 63 5 87 25 5 5 16 62 54 26 4 5 5 0 0 0 0 0 13 100 96 98 100 100 100 100 100 100 100 100 100 100 100 100 100 86 100 100 100 100 100 100
100 100 8 22 91 86 33 87 64 43 91 68 5 5 5 5 0 0 0 0 0 9 98 73 70 100 100 100 100 100 100 100 100 100 100 100 100 100 100 100 100 100 100 100
100 100 32 5 96 100 0 20 64 97 82 41 4 5 4 5 5 2 0 0 0 0 6 28 68 100 100 81 100 100 100 100 100 98 88 100 100 100 100 100 100 100 100 100
100 100 100 5 86 91 23 99 44 59 74 80 4 5 75 4 5 0 0 0 0 0 0 0 0 4 51 100 64 55 100 100 100 100 100 100 100 100 100 100 100 100 100 100
100 100 90 42 13 96 97 34 67 5 63 99 35 26 85 5 5 5 5 0 0 0 0 0 0 0 23 87 75 56 98 100 100 100 100 100 100 100 100 100 100 100 100 100
100 100 100 100 23 100 97 5 10 5 67 99 34 100 57 5 5 5 5 4 1 0 0 2 41 35 46 98 60 83 22 58 100 100 100 100 100 100 100 100 100 100 100 100
100 100 100 100 100 100 98 5 5 5 86 100 61 100 98 5 5 11 6 5 5 0 0 0 0 2 14 97 29 54 46 90 100 87 23 47 84 98 100 100 100 100 100 100
100 100 100 100 100 100 55 4 8 8 5 15 82 100 100 45 18 44 5 5 5 5 5 5 5 0 0 1 18 25 97 100 100 99 6 5 5 30 92 97 99 95 98 100
100 100 100 100 100 70 100 93 53 40 71 100 82 100 100 100 49 96 67 6 25 5 6 40 6 4 0 0 0 14 4 3 85 100 60 5 1 4 5 5 5 5 5 5
100 100 100 91 28 80 100 100 84 13 94 90 85 99 100 89 100 100 100 81 5 5 5 5 5 5 5 0 0 0 0 5 1 0 1 41 41 81 83 74 95 30 50 53
100 100 100 100 98 100 99 85 96 82 58 93 99 100 100 79 100 100 100 88 5 5 23 5 5 5 5 0 0 0 0 0 4 5 5 5 40 48 100 100 100 100 92 96
100 100 100 100 100 100 100 99 100 96 84 94 94 100 100 96 50 100 100 100 94 33 5 9 33 5 5 5 1 0 0 0 4 96 100 69 10 5 42 9 74 80 76 8
95 100 100 100 100 100 100 100 100 76 75 45 17 94 100 100 100 34 100 100 100 100 93 100 6 55 59 5 5 3 5 2 0 0 1 6 61 99 85 40 60 100 77 30
100 100 100 100 100 100 47 100 100 86 46 5 70 5 100 100 100 100 61 100 100 100 100 100 88 5 62 96 5 5 5 4 1 0 0 0 0 0 4 28 68 24 58 28
100 100 100 100 100 100 100 100 100 100 83 70 99 78 100 100 100 100 94 99 100 100 100 100 100 100 11 5 100 10 42 5 15 5 2 0 0 0 0 0 0 0 0 4
100 100 99 100 100 100 100 100 100 100 100 100 100 100 96 94 84 100 100 99 93 97 100 100 100 100 42 65 6 91 78 61 94 11 5 0 5 1 0 0 0 0 1 12
100 100 100 100 100 100 100 100 100 100 100 86 100 100 100 98 85 100 95 95 100 100 100 100 100 100 100 100 29 44 5 37 100 100 82 7 5 5 2 6 5 28 73 82
100 79 100 100 100 96 100 100 100 100 100 100 100 100 100 100 100 100 100 100 100 100 100 52 100 80 100 100 100 100 46 6 38 100 100 94 62 97 2 46 90 97 99 100
100 99 86 100 98 92 100 100 100 100 100 100 100 100 100 76 82 99 100 100 100 100 100 100 100 100 100 100 100 100 100 100 66 10 99 100 45 100 100 100 100 100 100 100
100 100 100 100 90 60 99 100 100 100 65 37 32 4 5 5 6 96 100 100 100 100 100 100 100 100 100 100 100 100 100 100 100 99 100 100 100 82 100 100 100 100 100 100
100 100 100 100 100 96 100 100 88 91 48 5 14 100 70 5 100 100 100 100 100 100 100 100 100 100 100 100 99 100 100 100 100 100 100 100 100 100 100 100 100 100 100 100
100 100 100 100 96 88 100 100 100 100 100 89 29 94 100 98 89 54 98 100 100 100 100 100 100 100 100 100 100 100 100 100 100 100 100 100 100 100 100 100 100 100 100 100
21 20 14 75 99 100 100 100 100 100 100 100 100 100 94 100 100 100 61 56 100 100 100 100 100 100 100 100 100 100 100 100 100 100 100 100 100 100 100 100 100 100 100 100
1 4 5 5 5 5 5 35 3 63 87 88 99 97 10 36 99 100 100 100 100 97 71 95 100 100 100 100 100 100 100 100 100 100 100 100 100 100 100 100 100 100 100 100
12 10 4 3 98 98 60 10 87 13 1 4 2 4 3 5 72 100 44 45 59 69 89 100 97 93 96 100 100 100 100 100 100 100 100 100 100 100 100 100 100 100 100 100

GFSCGP_prec_cloud_066.txt.gz
Cloud_Cover
100 78 58 100 2 79 100 19 8 19 5 5 5 5 0 0 0 0 0 0 0 0 0 65 100 100 100 100 100 100 100 100 100 100 100 100 100 100 100 100 100 100 100 100
100 19 100 74 19 32 96 19 90 60 5 19 5 24 7 2 0 0 0 0 0 0 0 0 84 100 100 100 100 100 100 100 100 100 100 100 97 100 100 100 100 100 100 100
100 100 100 56 99 62 99 40 8 66 95 74 56 16 56 5 2 0 0 0 0 0 0 0 0 81 99 100 100 100 100 100 100 100 100 100 100 100 100 100 100 100 100 100
100 100 100 64 80 99 100 70 5 12 99 100 39 5 100 5 5 0 0 0 0 0 0 0 0 0 70 100 100 100 100 100 100 100 100 100 100 100 78 92 100 100 100 100
45 100 100 93 88 98 100 100 22 14 99 100 10 18 79 5 5 2 0 0 0 0 0 0 0 0 0 26 100 100 100 100 100 100 91 88 100 100 100 100 100 100 100 100
68 100 100 100 100 96 100 100 91 14 6 68 19 35 7 12 9 5 5 0 0 0 0 0 0 0 0 4 35 99 100 100 100 100 100 100 100 100 100 100 100 100 100 100
100 100 100 100 76 66 100 98 98 34 5 99 23 92 48 40 5 7 5 5 0 0 0 0 0 0 0 0 10 95 97 100 100 100 100 100 100 97 100 100 100 100 100 100
100 100 100 100 97 100 100 100 94 63 16 31 26 99 10 99 5 5 5 5 4 0 0 2 0 0 0 0 0 25 26 53 100 100 100 92 69 100 100 100 100 100 100 100
100 100 100 100 100 100 100 100 96 27 12 47 78 100 100 100 100 100 16 5 5 5 0 0 0 0 0 0 0 0 0 0 36 88 97 100 100 100 100 100 100 100 100 100
100 100 100 100 100 93 98 100 64 22 95 99 100 100 100 73 4 100 99 4 7 39 5 0 1 4 3 0 0 0 0 0 2 20 94 100 94 59 31 86 97 100 100 100
100 98 100 100 100 86 100 100 99 89 97 100 100 100 100 95 10 86 100 100 72 100 25 2 0 0 2 1 0 0 0 0 0 0 33 88 100 94 25 16 27 5 12 22
100 100 100 100 100 100 100 100 100 100 98 41 79 98 100 100 99 86 100 100 100 99 25 99 7 4 0 0 0 0 0 0 0 0 0 1 21 20 18 55 14 45 65 99
100 99 99 100 100 100 100 99 99 100 100 100 100 100 100 100 100 100 20 61 61 64 65 100 100 10 1 0 2 3 5 1 0 0 0 0 0 4 40 6 5 5 5 13
100 100 100 100 100 100 94 100 100 100 100 100 100 100 100 100 100 100 85 62 96 86 84 100 100 100 44 3 3 4 5 4 3 0 0 0 0 0 0 2 2 5 25 10
100 100 100 100 100 100 100 100 100 100 100 100 100 100 100 100 100 100 100 99 89 100 79 9 58 100 100 92 0 0 0 8 5 0 0 0 0 0 0 0 0 0 0 5
100 100 100 100 100 100 100 100 100 100 100 100 96 80 50 100 100 100 100 100 46 72 78 99 18 52 12 94 100 5 5 5 44 6 3 5 1 0 0 0 0 0 0 0
100 100 100 100 100 100 100 100 100 100 100 99 97 77 96 98 100 100 97 100 100 90 42 38 5 5 5 6 57 98 46 5 22 36 75 94 93 48 0 0 0 4 1 0
100 100 100 100 100 100 100 100 100 100 100 100 100 100 72 100 100 100 100 100 100 100 100 99 85 100 100 99 97 94 100 100 66 33 99 69 56 87 92 9 33 4 3 2
100 100 100 100 100 100 100 100 99 100 100 99 59 77 100 100 100 100 100 100 100 100 100 100 100 100 100 100 97 100 100 100 100 55 75 72 99 14 62 100 100 100 36 89
100 100 98 100 100 100 100 100 100 100 100 100 19 93 98 99 100 100 100 100 100 100 100 100 100 100 100 100 100 100 100 100 100 100 63 100 96 83 98 100 100 100 100 100
100 100 100 100 100 100 100 100 100 100 89 97 74 39 64 91 93 100 100 100 100 100 100 100 100 100 100 100 100 100 100 100 100 100 100 100 100 100 100 100 100 100 100 100
100 97 99 100 100 97 100 100 100 60 61 93 86 100 100 100 100 100 100 100 100 100 100 100 100 100 100 100 100 100 100 100 100 100 100 100 100 100 100 100 100 100 100 100
100 100 100 75 87 69 100 100 100 100 96 68 100 99 77 59 61 76 100 100 100 100 96 99 80 100 100 100 100 100 100 100 100 100 100 100 100 100 100 100 100 100 100 100
100 100 100 92 100 100 85 100 100 100 100 100 100 100 96 88 31 79 57 59 38 54 18 54 69 100 100 100 100 100 100 100 100 100 100 100 100 100 100 100 100 100 100 100
95 97 32 75 100 100 100 100 100 100 100 100 100 100 100 100 70 99 86 80 100 65 58 99 94 100 100 100 100 100 100 100 100 100 100 100 100 100 100 100 100 100 100 100
20 42 5 75 65 75 59 96 93 100 100 100 100 100 100 100 97 100 100 92 78 95 100 100 100 100 100 100 100 100 100 100 100 100 100 100 100 100 100 100 100 100 100 100

GFSCGP_prec_cloud_069.txt.gz
Cloud_Cover
100 79 5 100 100 100 97 54 96 100 100 14 62 9 7 5 5 0 0 0 0 0 0 0 3 100 96 91 100 100 100 100 100 100 100 100 100 100 100 100 100 100 100 100
100 5 96 100 100 100 100 13 100 98 82 38 38 12 45 4 6 5 4 2 0 0 0 0 0 36 100 99 94 100 100 100 100 100 100 100 100 100 100 100 100 100 100 100
100 49 100 100 100 100 63 68 100 100 100 71 5 26 7 5 11 5 0 0 3 0 0 0 0 0 45 100 100 100 100 99 100 100 100 100 100 100 100 100 100 100 100 100
100 100 100 100 100 100 53 100 100 100 75 83 93 86 76 29 76 26 4 0 0 0 0 0 0 0 0 87 100 100 98 100 99 100 98 100 100 100 92 100 100 100 100 100
100 100 100 100 100 100 100 100 100 100 70 100 100 49 100 30 9 5 5 5 0 0 0 0 0 0 0 19 100 100 100 100 100 100 100 100 100 100 100 100 100 100 100 100
100 100 100 100 100 100 100 100 100 65 99 100 100 11 100 96 96 6 5 5 2 0 0 0 0 0 0 8 84 100 100 100 100 100 100 100 100 99 100 100 100 100 100 100
100 100 100 100 100 100 94 100 100 97 100 100 95 18 5 97 10 5 5 5 1 0 0 0 0 0 0 0 15 80 100 100 100 100 100 98 85 99 99 100 100 100 99 100
100 100 100 100 100 100 100 100 100 100 100 100 98 65 33 90 35 5 5 5 4 0 3 2 1 0 0 0 0 5 44 100 100 100 99 100 97 95 100 99 98 90 100 100
100 100 100 100 100 100 100 68 100 100 100 100 100 22 8 91 100 60 5 5 5 5 0 1 0 0 0 0 0 0 0 8 89 77 100 100 100 95 98 100 97 94 89 100
100 100 100 100 100 100 100 100 100 97 100 100 100 100 100 82 100 100 100 100 94 68 10 1 4 0 0 0 0 0 0 0 3 84 50 82 75 61 100 87 72 100 100 100
100 100 100 100 94 100 100 100 100 100 100 100 100 100 100 60 100 90 82 71 19 100 94 1 100 52 0 0 0 0 0 0 0 0 28 77 66 100 100 98 24 6 18 90
100 100 100 100 100 100 100 100 100 100 100 100 100 100 100 37 90 96 43 5 0 94 100 100 100 3 98 100 1 0 0 0 0 0 0 13 26 55 44 7 36 81 34 5
100 95 100 100 100 100 100 100 100 100 100 100 100 100 100 91 23 100 100 62 18 2 9 92 100 100 100 100 100 5 0 0 0 0 0 0 0 0 0 0 12 14 1 1
100 100 100 100 100 100 100 100 100 100 100 100 100 100 100 100 100 100 92 82 94 95 7 27 5 5 4 4 100 100 36 0 0 1 0 0 0 0 0 0 0 0 0 0
100 100 100 100 100 100 100 100 100 100 100 100 100 100 100 100 100 100 100 93 30 99 92 100 100 40 5 6 30 40 100 92 15 0 0 2 0 0 0 0 0 0 0 0
100 100 100 100 100 100 100 100 100 100 100 100 100 100 100 100 100 100 100 100 100 92 100 45 44 88 100 93 5 5 5 10 92 100 86 0 0 0 4 6 98 7 0 0
100 100 100 100 100 100 100 100 100 100 100 100 100 100 100 100 100 100 100 100 100 100 22 17 98 98 100 100 30 11 21 98 8 100 100 100 9 0 1 2 6 94 100 86
100 100 100 100 100 100 100 100 100 100 100 100 100 100 100 100 100 100 100 100 100 100 100 78 43 40 100 98 100 92 86 30 48 65 69 100 100 100 55 45 100 80 14 65
100 100 100 100 100 100 100 100 100 100 100 100 100 100 100 100 100 100 100 95 100 100 100 100 56 60 14 5 84 42 19 5 5 40 100 100 98 86 100 100 100 100 100 99
100 100 100 100 100 100 100 100 100 100 100 100 100 100 100 99 100 96 100 100 100 100 100 100 100 100 100 100 100 92 33 55 56 100 100 100 100 94 100 90 84 99 100 100
100 100 100 100 100 100 100 100 100 100 100 100 100 100 100 74 78 61 45 100 100 100 100 100 100 100 100 100 100 100 100 100 100 100 100 100 100 100 88 89 100 100 69 76
100 100 100 100 100 100 100 100 100 100 100 55 82 96 71 56 11 89 62 28 32 85 100 100 100 100 100 100 100 100 100 100 100 100 100 100 70 100 100 100 100 100 100 100
100 100 100 100 100 100 100 100 100 100 100 100 100 100 90 37 19 42 91 91 76 68 100 100 100 100 100 100 100 100 100 100 100 100 100 100 100 100 100 100 100 100 100 100
100 100 100 100 100 100 100 100 100 100 100 100 100 100 100 91 54 5 5 5 23 99 100 100 100 100 100 100 100 100 100 100 100 100 100 100 100 100 100 100 100 100 100 100
100 100 100 100 100 100 100 100 100 100 100 100 100 94 90 100 61 6 6 16 36 39 37 68 86 90 100 100 100 100 100 100 100 100 100 100 100 100 100 100 100 100 100 100
100 100 100 100 100 100 100 100 100 100 100 100 100 95 55 24 58 86 81 90 93 100 100 100 98 100 100 100 100 98 100 100 100 100 100 100 100 100 100 100 100 100 100 100

GFSCGP_prec_cloud_072.txt.gz
Cloud_Cover
2 5 5 100 100 100 100 100 100 100 100 100 86 46 34 30 8 46 5 0 78 9 0 0 0 38 96 100 100 100 69 100 100 100 100 100 100 100 100 100 100 100 100 100
14 2 98 100 100 100 100 100 100 100 100 100 100 5 7 76 28 37 78 8 4 12 1 0 0 0 74 100 100 100 100 96 100 100 100 100 100 100 100 100 100 100 100 100
95 52 100 100 100 100 86 100 100 100 100 100 78 5 5 29 5 5 99 20 57 93 1 0 0 0 0 92 100 100 100 100 100 100 100 100 100 100 100 100 100 100 100 100
72 95 100 100 100 100 100 100 100 100 100 100 100 61 53 32 34 5 5 4 5 19 0 0 0 0 0 20 100 100 100 100 100 100 100 100 100 100 100 100 100 100 100 100
43 100 100 99 100 99 100 100 100 100 100 100 100 100 0 62 100 12 70 6 4 0 0 0 0 0 0 0 100 100 100 98 100 100 100 100 98 100 100 100 100 100 100 100
100 100 100 100 100 100 100 100 100 100 100 100 100 90 8 86 98 100 99 32 4 5 2 0 0 0 0 0 98 100 100 100 100 100 100 100 100 86 100 96 99 100 100 100
100 100 100 100 100 100 100 100 100 96 100 100 100 57 10 41 79 27 18 5 1 5 1 0 0 0 0 0 23 73 100 100 100 100 100 100 100 100 100 100 100 100 100 100
100 100 100 100 100 100 100 100 100 99 100 100 100 85 100 49 85 93 13 5 5 5 4 0 0 0 0 0 0 44 27 99 100 100 100 100 100 100 99 100 100 100 100 100
100 100 100 100 100 100 100 100 100 100 100 100 100 94 86 7 7 65 99 5 10 16 5 2 0 0 0 0 0 0 3 71 99 100 100 100 100 100 100 78 94 100 100 75
100 100 100 100 100 100 100 100 100 100 100 100 100 100 100 66 44 24 90 30 90 75 15 5 24 1 0 4 0 0 0 0 2 46 100 100 100 100 98 50 79 100 100 100
100 100 100 100 100 100 100 100 100 100 100 100 100 100 100 100 100 94 59 100 100 100 100 100 100 97 0 100 19 1 0 0 0 0 10 86 100 100 100 19 26 38 24 22
100 100 96 100 100 100 100 100 100 100 100 100 100 100 100 100 100 100 99 92 100 100 100 53 40 100 100 100 79 100 99 5 0 0 0 0 73 100 100 68 34 46 8 37
99 100 100 100 100 100 100 100 100 100 100 100 100 100 100 100 100 100 89 92 85 13 5 4 0 10 92 100 100 100 84 100 15 0 0 0 0 0 17 0 0 19 13 0
100 100 100 100 100 100 100 100 100 100 100 100 100 100 100 100 100 100 99 60 94 87 77 49 5 5 4 14 94 83 2 87 100 89 3 2 0 0 0 0 0 1 2 28
100 100 100 100 100 100 100 100 100 100 100 100 100 100 100 100 100 100 100 76 70 98 100 100 98 83 75 36 5 3 0 1 63 100 100 88 21 7 1 0 0 0 0 9
100 100 100 100 100 100 100 100 100 100 100 100 100 100 100 100 100 100 100 100 88 44 5 5 56 100 59 98 37 31 20 5 0 0 4 5 22 100 54 12 3 0 0 26
100 100 100 100 100 100 100 100 100 100 100 100 100 100 100 100 100 100 100 100 100 100 100 82 74 12 7 13 14 15 5 5 5 5 5 3 4 4 55 93 63 13 21 6
100 100 100 100 100 99 100 100 100 100 100 100 100 100 100 100 100 100 100 100 100 100 100 100 100 100 45 84 96 93 27 69 94 94 69 39 46 58 59 6 49 100 100 88
100 100 100 100 100 100 100 100 100 100 100 100 100 100 100 100 100 89 100 100 100 100 100 100 100 100 100 100 100 98 100 79 74 52 60 89 89 63 56 78 100 100 66 81
100 100 100 100 100 100 100 100 100 100 100 100 100 100 100 100 100 100 100 100 100 100 100 100 100 100 100 100 88 98 100 100 100 90 56 9 5 5 22 11 79 76 100 100
100 100 100 100 100 100 100 100 100 100 100 100 100 100 100 100 99 100 100 100 96 100 100 100 100 100 100 100 100 100 100 100 100 100 100 89 50 45 91 40 42 87 29 58
100 100 100 100 100 100 100 100 100 100 100 100 100 100 100 100 100 100 100 100 100 100 99 95 51 99 100 100 100 100 100 100 100 100 100 100 100 98 100 100 100 99 100 100
100 100 100 100 100 100 100 100 100 100 100 100 85 100 100 100 100 100 100 100 96 100 100 100 100 90 88 100 100 100 100 100 100 100 100 100 100 100 100 100 100 100 100 100
100 100 100 100 100 100 100 100 100 100 100 100 100 100 100 100 100 100 99 100 48 21 44 46 76 88 100 100 100 100 100 100 100 100 100 100 100 100 100 100 100 100 100 100
100 100 100 100 100 100 100 100 98 100 100 100 100 100 100 100 100 100 100 71 73 80 100 100 100 100 100 100 100 100 100 100 100 100 100 100 100 100 100 100 100 100 100 100
100 100 100 100 100 100 100 100 99 100 100 100 100 100 100 92 82 81 100 99 100 100 100 100 100 100 100 100 100 100 100 100 100 100 100 98 100 100 100 100 100 100 100 100

GFSCGP_prec_cloud_078.txt.gz
Cloud_Cover
5 22 76 5 0 0 0 0 0 0 2 57 20 0 100 36 8 1 5 5 3 0 1 0 0 66 81 45 21 41 99 100 97 100 100 100 100 100 100 100 100 100 100 100
90 8 70 79 19 5 5 0 0 0 5 68 17 1 95 48 83 89 55 5 5 4 0 0 23 100 99 94 42 53 68 100 100 100 100 100 100 100 100 100 100 100 100 100
58 99 88 100 100 13 0 0 5 0 50 69 2 0 76 40 37 96 53 5 5 3 0 0 33 99 100 100 92 100 66 100 100 100 100 100 100 100 100 100 100 100 100 100
66 99 100 92 58 4 0 0 2 5 100 37 70 5 0 72 92 95 26 7 5 5 1 0 4 100 100 92 52 58 64 100 100 100 100 100 100 100 100 100 100 100 100 100
4 6 78 23 45 5 3 5 6 87 72 46 22 4 95 54 99 100 99 5 35 5 5 3 5 27 72 62 64 21 28 76 100 100 99 100 100 100 100 100 100 100 100 100
53 67 94 87 8 2 14 5 13 99 96 21 33 8 91 95 100 100 99 5 100 5 5 5 5 3 36 50 36 55 100 100 100 100 42 100 100 100 100 100 100 100 100 100
11 22 86 5 4 5 78 84 91 100 85 35 86 64 100 100 100 100 100 24 34 16 5 2 10 5 10 66 55 47 100 100 100 100 65 40 46 86 100 100 100 100 100 100
100 100 7 0 5 59 81 86 100 76 70 52 21 66 100 100 98 100 100 71 89 8 71 5 5 5 4 39 56 27 100 100 100 100 100 98 59 41 34 94 65 100 100 100
100 97 10 2 4 54 100 100 100 100 100 100 10 100 100 100 85 100 100 100 62 92 18 5 0 5 1 12 36 10 29 100 100 100 100 100 100 100 100 100 84 49 52 54
88 29 4 4 13 100 99 100 100 100 100 100 8 100 100 100 100 100 100 66 54 37 5 5 0 5 0 5 4 1 3 99 100 100 100 100 100 100 100 100 100 100 99 78
97 50 8 16 70 86 100 100 100 100 99 100 88 100 100 100 100 100 100 100 100 100 16 28 4 4 5 5 18 98 5 53 100 100 99 100 100 100 100 66 67 100 100 100
5 79 95 3 3 17 100 100 100 100 90 100 100 100 100 100 95 86 100 100 100 100 100 84 68 5 5 50 100 72 81 100 100 100 99 96 100 100 100 100 100 53 14 8
4 72 62 0 3 98 100 100 100 100 94 100 100 98 100 100 100 42 100 96 26 92 100 97 24 7 25 90 100 100 19 72 100 98 62 6 5 67 98 100 100 100 98 58
5 5 5 5 9 100 100 100 100 100 100 100 100 100 100 100 100 100 100 100 95 73 100 100 100 100 100 98 98 87 9 8 4 41 37 16 22 5 4 61 98 100 100 100
90 52 5 5 86 100 100 100 100 100 100 100 100 100 100 100 100 100 100 100 100 100 100 100 100 100 100 80 61 17 5 41 88 15 19 0 0 1 0 3 6 89 98 100
46 38 5 5 100 100 100 100 100 100 98 100 86 100 100 100 100 100 100 100 100 100 100 100 100 100 94 100 100 100 100 57 62 96 26 37 27 93 26 0 0 0 0 19
100 100 79 72 100 100 100 100 100 100 82 100 100 100 100 100 100 100 100 72 80 100 100 100 100 100 100 100 100 67 58 96 100 100 100 91 79 49 54 70 72 37 29 20
47 39 83 100 100 100 100 100 100 100 100 100 100 100 100 100 100 100 100 100 100 100 100 99 100 100 100 100 100 100 74 50 28 18 42 81 99 100 100 99 76 98 94 92
0 2 13 100 100 100 100 100 100 100 100 100 100 100 100 100 100 100 100 100 100 100 100 100 94 100 100 100 100 100 100 100 100 100 100 96 100 100 100 100 100 100 98 98
0 0 5 100 100 100 100 100 100 100 100 100 100 100 100 100 100 100 100 100 100 100 100 100 38 63 84 100 99 100 100 100 100 100 100 100 100 100 100 100 100 100 100 100
27 33 36 100 100 100 100 100 100 100 100 100 100 100 100 100 100 100 100 100 100 100 100 100 99 75 100 100 100 100 100 100 83 64 78 92 100 100 100 100 100 100 100 100
63 100 97 100 100 100 100 100 100 100 100 100 100 100 100 100 100 100 100 100 100 100 100 100 86 100 100 100 100 100 100 100 100 94 82 67 85 88 100 100 100 100 100 100
100 82 100 100 100 100 100 100 100 100 100 100 100 100 100 100 100 100 100 100 100 100 100 100 100 100 100 100 100 100 100 100 100 100 100 100 100 100 100 100 100 100 100 100
100 94 100 100 100 100 100 100 100 100 100 100 100 100 100 100 100 100 100 100 100 100 99 100 100 100 100 100 100 100 100 100 100 100 99 100 100 100 100 100 100 100 99 96
100 100 96 100 100 100 100 100 100 100 100 100 100 100 100 100 100 100 100 100 100 91 100 100 100 100 100 100 100 100 96 83 92 97 82 87 100 100 100 100 100 100 100 100
100 100 100 100 100 100 100 100 100 100 100 100 100 100 100 100 100 100 100 100 100 100 100 99 100 100 100 100 100 100 98 96 100 100 100 100 100 100 100 100 100 100 100 100

GFSCGP_prec_cloud_081.txt.gz
Cloud_Cover
81 64 100 100 96 86 20 0 0 5 3 0 0 0 0 0 65 0 5 0 16 100 56 3 2 46 62 41 74 100 100 100 100 96 100 100 100 100 100 100 100 100 100 100
100 100 100 76 55 12 6 1 1 0 3 0 0 0 0 0 43 0 0 6 100 69 100 6 52 99 94 74 70 100 100 100 100 100 100 100 100 100 100 100 100 100 100 100
13 62 96 100 88 14 10 5 5 5 0 0 0 0 0 0 5 0 22 99 97 100 100 17 79 100 100 100 100 100 100 69 100 48 100 100 100 100 100 100 100 100 100 100
100 91 94 89 16 10 7 55 5 3 0 1 0 1 0 2 0 1 57 72 99 77 96 2 51 100 100 100 100 100 48 54 99 87 100 100 100 100 100 100 100 100 100 100
100 100 65 35 98 69 5 1 4 5 5 2 0 6 0 4 0 68 89 100 100 100 66 5 28 61 100 100 100 100 20 76 100 100 100 100 100 100 100 100 100 100 100 100
100 100 100 83 47 5 5 3 54 68 27 15 1 22 85 0 28 100 100 100 100 100 5 4 43 99 100 100 100 100 80 100 100 100 100 100 100 100 100 100 100 100 100 100
100 96 100 99 20 5 23 75 77 80 97 35 5 5 100 15 100 100 100 100 98 100 91 5 85 100 100 100 100 99 70 100 97 98 98 100 100 100 100 100 100 100 100 100
44 62 89 100 30 6 96 82 62 15 9 5 0 19 100 100 100 100 100 100 100 100 100 4 24 65 95 100 100 72 52 52 63 75 100 100 100 100 100 100 100 100 100 100
54 54 98 100 13 26 100 100 11 98 98 100 10 87 100 100 81 95 91 100 100 100 77 5 5 60 69 100 100 20 16 31 56 70 93 100 100 100 100 100 100 100 100 100
100 100 100 100 85 63 97 100 100 97 100 94 52 100 100 100 5 7 100 100 91 94 95 5 32 71 14 72 94 24 8 24 24 65 59 89 87 60 99 63 79 100 100 100
100 100 100 100 100 100 60 100 100 100 90 100 98 100 100 8 45 97 100 100 54 100 100 61 62 61 7 37 75 55 34 52 3 22 100 82 27 40 96 100 48 100 100 100
100 100 100 100 97 57 6 53 93 100 100 100 83 100 100 62 88 100 100 100 99 100 100 94 98 92 5 16 47 37 22 100 96 100 100 100 100 63 50 77 3 0 7 78
100 100 100 100 88 33 77 99 99 100 100 96 100 100 100 99 46 89 100 100 100 8 62 92 9 6 92 94 81 69 100 100 100 100 100 100 100 100 52 18 5 5 0 0
98 100 83 89 10 50 9 100 100 100 100 100 100 100 100 100 92 100 100 100 100 59 93 54 49 94 99 98 93 98 100 100 98 46 24 38 17 20 70 92 100 100 100 89
32 7 5 5 4 4 5 59 100 58 65 97 100 100 100 100 100 100 100 100 100 100 100 99 100 100 100 100 100 100 100 100 100 17 58 53 7 5 2 5 10 30 68 93
95 5 5 5 3 4 2 3 100 99 46 100 100 100 100 100 100 100 100 100 100 100 100 100 100 100 100 100 100 100 100 86 76 69 50 29 72 67 58 5 44 21 1 1
100 67 25 6 3 2 5 22 60 100 100 100 100 100 100 100 100 100 100 100 100 100 100 100 100 100 100 100 100 100 100 100 100 100 100 100 100 91 98 38 37 89 72 59
64 100 49 83 4 17 1 95 86 100 100 100 100 100 100 100 100 100 100 100 100 100 100 100 100 100 100 100 100 100 100 100 100 100 100 100 100 100 100 100 100 100 100 100
100 100 27 50 40 4 90 100 100 100 100 100 100 100 100 100 100 100 100 100 100 100 100 100 100 100 100 100 100 100 100 100 100 100 100 100 100 100 100 100 100 100 100 100
99 13 13 73 31 28 100 100 100 100 100 100 100 100 100 100 100 100 100 100 100 100 100 100 100 100 100 100 100 100 100 100 100 100 100 100 100 100 100 100 100 100 100 100
36 66 71 98 95 100 100 100 100 100 100 100 100 100 100 100 100 100 100 100 100 100 100 100 100 100 100 100 100 100 100 100 100 100 100 100 100 100 100 100 100 100 100 100
5 75 98 84 96 100 100 100 100 100 100 100 100 100 100 100 100 100 100 100 100 100 100 100 100 100 100 100 100 100 100 100 100 100 99 100 100 100 100 100 100 100 100 100
73 66 97 82 59 100 100 100 100 100 100 100 100 100 100 100 100 100 100 100 100 100 100 100 100 100 100 100 100 100 100 100 100 100 100 100 100 100 100 100 100 100 100 100
100 100 100 57 100 100 100 100 100 100 100 100 100 100 100 100 100 100 100 100 100 100 100 100 100 100 100 100 100 100 100 100 100 100 99 91 98 100 100 100 100 100 100 100
100 100 100 100 100 100 100 100 100 100 100 100 100 100 100 100 100 100 100 100 100 100 100 100 100 100 100 100 100 100 100 100 100 100 92 90 97 100 100 100 100 100 100 100
100 100 100 100 100 100 100 100 100 100 100 100 100 100 100 100 100 100 100 100 100 100 100 100 100 100 100 100 100 100 100 100 100 100 100 98 93 99 100 99 100 100 100 100

GFSCGP_prec_cloud_084.txt.gz
Cloud_Cover
100 100 100 100 100 100 100 100 100 100 100 57 0 0 0 0 5 5 0 0 0 0 0 8 24 43 68 52 83 100 52 45 100 100 100 100 100 100 100 100 100 100 100 100
100 98 100 100 100 100 93 89 100 94 78 3 3 0 0 0 4 2 0 0 0 0 10 100 87 96 84 94 100 100 98 25 56 61 56 100 100 100 100 100 100 100 100 100
100 100 96 100 97 99 100 27 5 5 19 3 0 0 0 5 3 0 0 0 0 5 93 100 92 53 80 100 100 100 92 80 100 100 94 100 100 100 100 100 100 100 100 100
100 100 100 100 81 100 100 68 6 5 5 4 3 4 3 16 1 0 0 0 1 67 100 93 52 78 74 100 100 100 100 100 100 100 100 100 100 100 100 100 100 100 100 100
95 96 100 100 100 95 100 96 16 5 5 58 5 23 0 99 0 0 0 0 51 100 100 100 100 88 84 98 100 100 100 62 71 99 78 99 100 100 94 100 100 100 100 100
78 100 100 100 100 100 100 100 100 18 26 57 8 1 0 53 0 0 0 1 100 100 100 21 58 7 75 100 100 100 100 81 100 100 100 100 100 100 100 100 100 100 100 100
100 100 100 100 100 100 100 100 92 35 93 32 38 2 0 6 0 0 0 92 100 100 94 32 60 49 81 100 100 100 100 100 100 100 100 100 100 100 100 100 100 100 100 100
100 100 100 100 100 93 100 100 99 33 44 19 5 2 0 0 0 0 0 38 99 100 98 100 59 27 38 100 100 100 100 100 100 100 100 100 100 100 100 100 100 100 100 100
100 100 100 100 100 100 100 100 10 61 88 92 5 0 0 4 0 0 17 100 100 80 100 61 99 30 86 100 100 100 100 100 100 88 100 100 100 100 100 100 100 100 100 100
98 96 100 100 99 82 49 78 100 100 75 39 5 4 48 4 4 4 100 100 100 100 98 100 100 78 100 100 100 100 100 93 100 80 70 100 100 100 100 100 100 100 100 100
100 96 89 100 95 25 46 65 100 93 99 94 51 4 33 98 7 75 97 100 100 100 100 77 100 97 100 100 100 100 72 58 92 100 85 83 100 100 93 100 99 100 100 100
100 100 100 100 89 9 52 87 79 99 100 96 64 18 98 99 89 100 100 100 100 100 93 80 100 100 100 100 100 100 72 33 27 94 48 100 100 96 100 100 100 100 100 100
100 100 100 100 100 44 98 100 100 100 100 100 100 14 99 100 100 100 100 100 100 100 94 100 100 100 100 100 100 100 49 9 24 33 78 100 100 100 100 100 100 76 4 3
100 100 100 100 100 100 100 57 88 77 100 71 37 26 100 100 100 100 100 100 100 100 100 100 100 100 100 100 100 100 59 82 90 65 19 33 16 53 77 99 86 98 98 48
100 100 100 100 100 100 100 100 51 5 49 86 3 97 100 100 100 99 100 100 100 100 100 100 100 100 100 100 100 100 99 100 96 100 68 60 23 22 5 5 5 6 17 53
100 100 6 70 82 5 60 15 5 0 64 5 5 100 100 100 100 100 100 100 100 100 100 100 100 100 100 100 100 100 100 100 100 100 100 98 77 40 21 9 0 0 4 5
82 100 42 40 4 5 5 3 5 32 5 100 92 100 100 100 100 100 100 100 100 100 100 100 100 100 100 100 100 100 100 100 100 100 100 100 100 100 100 100 100 100 100 100
90 100 38 100 5 7 1 3 2 41 3 83 100 100 100 100 100 100 100 100 100 100 100 100 100 100 100 100 100 100 100 100 100 100 100 100 100 100 100 100 100 100 100 100
71 100 38 39 34 0 5 4 12 41 53 70 100 100 100 100 100 100 100 100 100 100 100 100 100 100 100 100 100 100 100 100 100 100 100 100 100 100 100 100 100 100 100 100
100 100 61 69 41 23 100 5 4 14 90 100 100 100 100 100 100 100 100 100 100 100 100 100 100 100 100 100 100 100 100 100 100 100 100 100 100 100 100 100 100 100 100 100
100 100 100 100 96 100 100 6 16 100 100 100 100 100 100 100 100 100 100 100 100 100 100 100 100 100 100 100 100 100 100 100 100 100 100 100 100 100 100 100 100 100 100 100
100 90 93 100 100 100 100 85 87 100 100 100 100 100 100 100 100 100 100 100 100 100 100 100 100 100 100 100 100 100 100 100 100 100 100 100 100 100 100 100 100 100 100 100
100 100 99 92 87 100 100 100 100 100 100 100 100 100 100 100 100 100 100 100 100 100 100 100 100 100 100 100 100 100 100 100 100 100 100 100 100 100 100 100 100 100 100 100
97 99 100 100 100 100 100 100 100 100 100 100 100 100 100 100 100 100 100 100 100 100 100 100 100 100 100 100 100 100 100 100 100 100 100 100 100 100 100 99 100 100 100 100
86 96 100 100 100 100 100 100 100 100 100 100 100 100 100 100 100 100 100 100 100 100 100 100 100 100 100 100 100 100 100 100 100 100 99 100 99 100 100 98 100 98 100 99
100 100 100 100 100 100 100 100 100 100 100 100 100 100 100 100 100 100 100 100 100 100 100 100 100 100 100 100 100 100 100 100 88 100 100 100 96 100 100 100 100 100 100 100

GFSCGP_prec_cloud_087.txt.gz
Cloud_Cover
100 100 100 100 100 100 100 100 100 100 100 100 98 88 46 91 100 100 100 15 0 5 5 0 0 0 0 0 4 5 62 100 81 100 100 100 100 100 100 100 100 100 100 100
100 100 100 100 100 100 100 100 100 100 100 100 100 100 100 100 90 100 100 50 3 4 0 0 0 0 0 0 5 84 72 74 100 96 96 100 100 100 100 100 100 100 100 100
100 100 100 100 100 100 100 100 100 100 100 100 100 95 90 83 24 66 33 1 2 5 0 0 0 0 4 4 50 95 64 5 80 98 81 100 100 100 100 100 100 100 100 100
100 100 100 100 100 100 100 100 100 100 61 41 3 1 9 13 100 9 0 0 5 0 0 0 0 2 1 48 100 100 16 3 36 41 60 100 97 100 100 100 100 100 100 100
100 100 100 100 100 97 93 100 100 100 52 18 6 5 58 6 8 5 0 1 0 0 0 0 0 3 17 86 100 100 57 18 35 59 100 59 100 100 100 100 100 100 100 100
100 100 100 100 100 100 100 100 100 95 27 58 5 4 5 5 5 10 0 0 0 0 0 0 0 75 48 100 100 100 94 69 62 93 100 100 92 100 100 100 100 100 100 100
100 100 100 100 100 100 100 99 94 75 93 37 10 20 13 11 7 5 0 0 0 0 0 0 32 6 30 100 100 100 100 64 92 100 100 100 100 100 100 100 100 100 100 100
100 100 100 100 100 100 92 100 100 80 52 21 90 99 41 8 9 2 0 0 0 0 24 25 9 5 46 100 100 100 99 64 99 100 100 100 100 100 100 100 100 100 100 100
100 100 100 100 100 100 100 100 78 49 21 49 60 5 5 5 48 16 3 0 0 25 100 93 12 5 35 82 100 100 100 58 100 100 100 100 100 100 100 100 100 100 100 100
100 100 100 100 100 100 100 100 97 88 57 82 29 66 5 5 5 5 2 0 9 100 100 100 100 100 85 78 100 100 100 100 100 100 100 100 100 100 100 100 100 100 100 100
100 100 100 100 100 100 100 100 75 100 100 100 56 5 5 83 94 2 2 6 96 100 100 100 100 73 87 77 100 100 100 100 100 100 96 100 100 100 100 100 100 100 100 100
100 100 100 100 100 100 100 100 58 77 96 100 97 92 16 13 77 5 5 78 100 100 100 100 100 100 100 100 100 100 100 100 100 100 64 100 100 100 100 100 100 100 100 100
100 100 100 100 100 100 100 100 100 99 90 56 98 96 100 17 84 5 83 100 100 100 100 100 100 100 100 100 100 100 100 91 98 100 91 100 100 100 100 100 100 100 100 100
100 100 100 100 100 100 100 62 5 5 62 80 79 100 100 5 6 58 100 100 100 100 100 100 100 100 100 100 100 100 83 57 55 67 78 100 100 100 100 100 100 100 100 100
100 100 100 100 100 100 100 67 5 5 37 17 100 98 9 1 5 95 100 100 100 100 100 100 100 100 100 100 100 100 99 91 44 44 61 65 99 55 62 73 69 94 100 100
100 100 100 100 42 17 100 38 96 5 5 19 28 80 5 5 24 100 100 100 100 100 100 100 100 100 100 100 100 100 100 100 77 100 100 100 87 75 68 70 54 52 48 60
100 100 100 100 45 54 94 14 36 99 37 23 86 20 6 26 100 100 100 100 100 100 100 100 100 100 100 100 100 100 100 100 100 100 100 100 100 100 100 100 100 100 100 100
100 100 72 89 25 41 41 37 15 78 54 22 92 100 100 100 100 100 100 100 100 100 100 100 100 100 100 100 100 100 100 100 100 100 100 100 100 100 100 100 100 100 100 100
78 100 100 57 71 6 8 80 5 52 30 100 100 100 100 100 100 100 100 100 100 100 100 100 100 100 100 100 100 100 100 100 100 100 100 100 100 100 100 100 100 100 100 100
99 100 89 86 8 31 99 22 4 42 99 100 100 100 100 100 100 100 100 100 100 100 100 100 100 100 100 100 100 100 100 100 100 100 100 100 100 100 100 100 100 100 100 100
67 95 91 100 85 99 100 94 3 71 100 100 100 100 100 100 100 100 100 100 100 100 100 100 100 100 100 100 100 100 100 100 100 100 100 100 100 100 100 100 100 100 100 100
71 83 91 100 97 100 100 99 74 100 100 100 100 100 100 100 100 100 100 100 100 100 100 100 100 100 100 100 100 100 100 100 100 100 100 100 100 100 100 100 100 100 100 100
100 100 100 100 100 100 100 100 100 100 100 100 100 100 100 100 100 100 100 100 100 100 100 100 100 100 100 100 100 100 100 100 100 100 100 100 100 100 100 100 100 100 100 100
36 100 100 100 100 100 100 100 100 100 100 100 100 100 100 100 100 100 100 100 100 100 100 100 100 100 100 100 100 100 100 100 100 100 100 100 100 100 100 100 100 100 100 100
100 100 100 100 100 100 99 100 100 100 100 100 100 100 100 100 100 100 100 100 100 100 100 100 100 100 100 100 100 100 100 100 100 100 100 100 100 100 100 100 100 100 100 100
97 100 100 100 100 100 100 100 100 100 100 100 100 100 100 100 100 100 100 100 100 100 100 100 100 100 100 100 100 100 100 100 100 100 100 100 100 100 100 100 100 100 100 99

GFSCGP_prec_cloud_090.txt.gz
Cloud_Cover
100 100 97 100 100 100 100 100 100 100 100 100 100 100 100 100 100 100 100 99 100 100 36 7 14 4 1 0 0 0 0 96 100 100 98 100 67 100 100 100 100 100 100 100
100 100 100 100 100 100 100 100 100 100 100 100 100 100 100 100 100 100 100 100 100 96 5 5 12 24 3 0 0 0 0 100 94 85 39 48 100 100 95 100 100 100 100 100
100 100 100 100 100 100 100 100 100 100 100 100 100 100 100 100 100 100 100 100 100 100 59 31 5 1 0 0 0 0 0 82 99 26 26 99 100 99 100 100 100 100 100 100
10 100 100 100 100 100 100 100 100 100 100 100 100 100 100 100 100 100 100 100 100 96 98 23 2 0 0 0 0 0 2 100 54 25 23 44 15 76 100 100 100 100 100 100
7 100 100 100 100 100 100 100 100 100 100 100 89 100 100 100 100 100 61 5 5 4 3 5 4 0 0 0 0 2 40 19 36 24 8 31 13 65 99 100 100 100 100 100
42 94 100 100 100 100 100 100 100 100 100 50 100 96 100 100 100 33 6 12 5 1 5 5 0 0 0 0 18 9 54 34 33 30 2 0 18 62 93 100 100 100 100 100
91 88 100 100 100 100 100 100 100 100 100 100 87 27 5 5 28 34 4 2 0 2 5 0 0 0 0 3 100 93 98 68 42 29 5 10 46 98 100 100 100 100 100 100
100 100 100 100 100 100 100 100 100 100 100 80 99 92 68 47 11 50 13 1 0 0 1 0 0 0 2 69 100 100 98 62 44 21 18 84 99 100 100 100 100 100 100 100
100 93 100 100 100 100 100 100 100 99 100 100 41 78 97 98 100 72 5 5 4 0 0 0 0 5 100 100 100 100 85 66 41 34 54 100 91 100 100 100 100 100 100 100
99 91 100 100 100 100 100 100 100 100 96 89 99 98 89 99 51 6 5 5 5 0 0 0 0 80 100 88 100 100 66 75 71 39 99 100 100 100 100 100 100 100 100 100
72 91 100 100 100 100 100 100 100 100 100 100 100 100 100 14 5 4 5 8 4 30 81 62 10 100 99 99 100 100 96 99 100 87 99 100 62 100 100 100 100 100 100 100
100 100 100 100 100 100 100 100 100 100 100 100 100 100 100 31 12 5 77 11 44 100 100 100 100 100 100 100 100 100 100 100 99 91 100 78 50 100 100 100 100 100 100 100
50 99 100 100 100 100 100 100 100 100 100 100 100 100 64 20 5 24 85 58 57 100 100 100 100 100 100 100 100 100 100 100 94 100 100 98 86 98 100 100 100 100 100 100
99 98 100 100 100 100 100 100 100 100 100 94 94 100 100 1 2 4 90 83 67 100 100 100 100 100 100 100 100 100 100 100 100 100 100 100 94 70 87 100 100 100 100 100
100 100 63 49 100 100 100 100 100 100 91 40 68 100 14 52 11 13 70 96 88 100 100 100 100 100 100 100 100 100 100 100 97 98 100 100 99 100 100 100 100 100 100 100
100 100 100 100 100 100 99 100 100 98 25 17 100 67 76 52 25 52 29 100 100 100 100 100 100 100 100 100 100 100 100 100 100 100 100 100 100 100 100 100 100 100 100 100
100 100 100 100 100 87 100 76 88 15 15 88 100 98 100 76 100 100 100 98 100 100 100 100 100 100 100 100 100 100 100 100 100 100 100 100 100 100 100 100 100 100 96 93
100 100 100 100 82 99 90 95 59 29 73 100 100 92 47 92 100 100 100 100 100 100 100 100 100 100 100 100 100 100 100 100 100 100 100 100 100 100 100 100 100 100 100 100
100 100 100 100 100 99 100 96 95 100 100 100 100 100 60 100 100 100 100 100 100 100 100 100 100 100 100 100 100 100 100 100 100 100 100 100 100 100 100 100 100 100 100 100
100 100 100 100 100 93 49 30 67 66 100 100 100 100 100 100 100 100 100 100 100 100 100 100 100 100 100 100 100 100 100 100 100 100 100 100 100 100 100 100 100 100 100 100
100 100 97 87 100 100 91 37 12 92 100 100 100 97 100 100 100 100 100 100 100 100 100 100 100 100 100 100 100 100 100 100 100 100 100 100 100 100 100 100 100 100 100 100
100 98 100 98 100 99 80 34 67 100 100 100 100 100 100 100 100 100 100 100 100 100 100 100 100 100 100 100 100 100 100 100 100 100 100 100 100 100 100 100 100 100 100 100
97 96 100 100 100 100 100 100 100 100 100 100 100 100 100 100 100 100 100 100 100 100 100 100 100 100 100 100 100 100 100 100 100 100 100 100 100 100 100 100 100 100 100 100
40 41 100 100 100 100 100 100 100 100 100 100 100 100 100 100 100 100 100 100 100 100 100 100 100 100 100 100 100 100 100 100 100 100 100 100 100 100 100 100 100 100 100 100
95 88 99 100 100 100 100 100 100 100 100 100 100 100 100 100 100 100 100 100 100 100 100 100 100 100 100 100 100 100 100 100 100 100 100 100 100 100 100 100 100 100 100 100
100 100 100 100 100 99 100 100 100 100 100 100 100 100 100 100 100 100 100 100 100 100 100 100 100 100 100 100 100 100 100 100 100 100 100 100 100 100 100 100 100 100 100 100

GFSCGP_prec_cloud_093.txt.gz
Cloud_Cover
0 0 0 4 34 92 100 99 26 100 100 100 100 100 100 100 100 100 100 100 100 100 100 100 100 85 23 5 5 0 0 0 60 100 100 100 100 100 100 100 100 100 100 100
1 0 5 5 100 100 100 100 13 100 100 100 100 100 100 100 100 100 100 100 100 100 100 100 100 99 5 2 2 0 0 0 35 100 100 65 98 100 100 100 100 97 100 100
0 1 10 1 98 100 100 100 100 100 100 100 100 100 100 100 100 100 100 100 100 100 100 100 80 70 52 5 5 0 0 0 65 88 84 96 100 100 100 100 100 85 98 92
3 77 7 79 100 100 100 100 100 100 100 100 100 100 100 100 100 100 100 100 100 100 96 93 97 100 5 5 5 0 0 0 49 13 12 100 79 100 100 100 74 78 96 100
0 0 98 100 100 100 100 100 100 100 100 100 100 100 100 100 100 100 100 100 100 100 100 100 99 100 99 65 3 0 0 0 23 0 43 63 82 40 28 70 89 100 100 100
29 5 97 100 100 100 100 100 100 100 100 100 100 100 100 100 100 100 100 100 100 100 87 58 94 68 22 1 0 0 0 0 16 5 82 62 51 15 18 99 86 100 100 100
96 86 93 89 96 100 100 100 100 100 100 100 100 100 100 100 100 100 100 100 100 100 100 99 38 5 5 1 0 0 0 0 23 15 66 66 21 16 45 100 83 100 100 100
100 100 17 100 94 100 100 100 100 100 100 100 100 100 100 100 100 100 95 87 100 100 96 32 5 4 5 0 1 0 0 4 23 91 86 39 37 71 100 86 83 100 100 100
99 99 99 54 96 100 100 100 100 100 100 100 100 100 100 100 100 100 100 100 53 5 8 46 5 5 5 0 20 3 4 26 81 100 93 52 75 100 99 83 100 97 100 100
45 97 45 100 93 100 100 100 100 100 100 100 100 100 100 100 100 96 86 89 7 5 6 90 52 5 9 3 33 93 100 100 100 100 96 55 100 96 75 99 100 100 100 100
100 74 83 100 54 100 100 100 100 100 100 100 100 100 100 100 100 100 48 17 5 5 22 100 80 62 73 34 95 100 100 100 100 100 99 99 100 85 64 86 100 100 100 100
87 100 100 5 90 100 100 100 100 100 100 100 100 100 100 100 100 99 62 11 5 12 32 100 100 100 100 87 100 100 97 100 100 100 100 100 100 78 95 100 100 100 100 100
100 99 100 100 93 100 100 100 100 100 100 100 100 100 100 98 89 100 94 49 27 67 34 100 100 100 100 100 100 100 100 100 100 100 100 100 100 82 100 100 100 100 100 100
100 100 100 100 65 100 100 100 100 100 100 100 100 100 100 100 94 97 100 100 91 58 54 100 100 100 100 100 100 100 100 100 100 100 100 100 100 75 80 100 100 100 100 100
100 100 100 100 100 100 100 100 100 100 100 100 100 100 100 100 100 100 100 64 34 30 48 100 100 100 100 100 100 100 100 100 100 100 100 100 100 34 100 100 100 100 100 100
100 95 100 100 100 100 100 100 100 100 100 100 100 100 100 100 77 55 94 69 79 89 92 100 100 100 100 100 100 100 100 100 87 100 100 100 100 88 100 100 100 100 100 100
100 100 100 100 100 100 100 100 100 100 100 100 100 100 7 7 83 100 100 100 100 100 100 100 100 100 100 100 100 100 100 100 100 100 100 100 100 100 100 100 100 100 100 100
100 100 100 100 100 99 100 100 100 100 100 100 100 73 43 94 100 100 100 100 100 100 100 100 100 100 100 100 100 100 100 100 100 100 100 100 100 100 100 100 100 100 100 100
100 88 99 100 100 40 98 99 100 100 100 94 64 48 64 100 100 100 100 100 100 100 100 100 100 100 100 100 100 100 100 100 100 100 100 100 100 100 100 100 100 100 100 100
100 100 100 100 100 100 100 40 95 100 100 100 100 80 99 100 100 100 100 100 100 100 100 100 100 100 100 100 100 100 100 100 100 100 100 100 100 100 100 100 100 100 100 100
100 100 99 100 100 96 69 8 16 100 100 100 100 100 99 100 100 100 100 100 100 100 100 100 100 100 100 100 100 100 100 100 100 100 100 100 100 100 100 100 100 100 100 100
100 100 100 100 100 91 84 6 62 100 100 100 100 100 100 100 100 100 100 100 100 100 100 100 100 100 100 100 100 100 100 100 100 100 100 100 100 100 100 100 100 100 100 100
100 100 100 99 100 100 100 100 100 100 100 100 98 100 100 100 100 100 100 100 100 100 100 100 100 100 100 100 100 100 100 100 100 100 100 100 100 100 100 100 100 100 100 100
100 100 100 100 94 100 100 100 100 100 100 100 100 100 100 100 100 100 100 100 100 100 100 100 100 100 100 100 100 100 100 100 100 100 100 100 100 100 100 100 100 100 100 100
100 88 100 100 100 100 100 100 100 100 100 100 100 100 100 100 100 100 100 100 100 100 100 100 100 100 100 100 100 100 100 100 100 100 100 100 100 100 100 100 100 100 100 100
100 99 100 100 100 100 100 100 100 100 100 100 100 100 100 100 100 100 100 100 100 100 100 100 100 100 100 100 100 100 100 100 100 100 100 100 100 100 100 100 100 100 100 100

GFSCGP_prec_cloud_096.txt.gz
Cloud_Cover
0 0 0 0 0 0 0 0 0 0 0 100 70 2 100 100 11 67 100 100 100 100 100 67 99 99 100 100 100 100 100 100 100 9 38 100 100 100 100 97 49 61 100 100
0 0 0 0 0 0 2 1 0 0 2 100 79 6 62 100 100 100 100 100 100 100 100 100 100 100 100 100 100 100 100 100 77 4 97 86 100 100 100 100 82 100 100 100
0 0 3 8 1 0 4 5 17 3 98 100 61 6 3 96 100 100 100 100 100 100 100 100 100 100 100 100 100 100 100 82 6 18 92 71 100 100 100 100 88 100 100 100
11 4 0 4 87 65 1 50 90 63 100 100 100 8 100 100 99 100 100 100 100 27 94 100 100 100 100 100 100 100 100 56 5 0 97 25 43 98 72 97 100 100 96 50
0 5 11 1 6 100 77 20 68 99 100 99 95 74 98 100 100 100 100 100 100 100 100 100 100 100 100 100 100 100 95 1 5 0 0 0 34 34 88 99 100 100 100 100
12 0 54 100 14 86 47 100 32 100 100 76 100 94 100 100 100 99 100 100 100 100 100 100 100 100 100 100 100 73 8 0 4 0 0 35 14 9 7 3 8 20 68 37
98 90 93 89 2 27 100 60 100 100 100 83 100 100 100 100 100 84 100 100 100 100 100 100 100 100 100 100 84 8 5 0 3 0 0 67 94 90 92 39 4 41 87 98
58 1 65 100 15 77 84 81 18 100 100 100 100 100 100 100 100 100 100 100 100 100 100 100 100 100 100 95 100 100 5 0 0 0 13 96 100 100 100 49 3 71 100 100
95 12 99 100 28 95 34 85 66 100 100 100 100 100 100 100 100 100 100 100 100 100 100 100 100 100 100 84 96 14 2 0 42 100 100 100 100 100 91 17 84 80 100 100
19 98 51 93 100 100 86 54 98 100 100 100 100 100 100 100 100 100 100 97 100 100 100 89 100 99 92 41 5 20 2 47 100 100 100 100 100 100 100 100 58 100 100 100
98 77 100 100 94 58 47 62 100 100 100 100 100 100 100 100 100 100 100 100 100 100 100 88 81 99 94 57 56 21 8 100 100 100 100 100 100 100 100 60 97 85 100 80
100 100 100 100 87 94 100 94 100 100 100 100 100 100 100 100 100 100 100 100 100 100 100 96 100 100 100 100 80 0 96 100 100 100 100 100 100 100 100 100 100 98 100 100
100 94 100 100 52 27 62 100 100 100 100 100 100 100 100 100 100 100 100 100 100 95 100 100 100 100 100 100 100 65 100 100 100 100 100 100 100 100 100 84 100 100 100 100
100 100 99 100 92 65 88 100 100 100 100 100 100 100 100 100 100 100 100 100 100 100 100 97 100 100 100 100 100 100 100 100 100 100 100 100 100 100 100 100 73 100 100 100
100 100 100 98 100 100 100 100 100 100 100 100 100 100 100 100 100 100 100 100 92 100 100 100 100 100 100 100 100 100 100 100 100 100 100 100 100 100 58 82 81 100 100 100
100 100 100 100 100 100 100 100 100 100 100 100 100 100 75 100 100 100 100 100 100 100 100 100 100 100 100 100 100 100 100 100 100 100 100 100 100 100 100 100 100 100 100 100
100 100 100 100 100 100 100 100 100 100 100 100 100 100 100 100 100 100 100 100 100 100 100 100 100 100 100 100 100 100 100 100 100 100 100 100 100 100 100 100 100 100 100 100
100 100 100 100 100 100 100 100 100 100 100 100 100 100 100 100 100 100 100 100 100 100 100 100 100 100 100 100 100 100 100 100 100 100 100 100 100 100 100 100 100 100 100 100
100 100 100 100 100 98 27 100 100 100 100 100 100 100 100 100 100 100 100 100 100 100 100 100 100 100 100 100 100 100 100 100 100 100 100 100 100 100 100 100 100 100 100 100
100 76 56 13 10 96 91 64 100 100 100 100 100 100 100 100 100 100 100 100 100 100 100 100 91 70 99 99 100 100 100 100 100 100 100 100 100 100 100 100 100 100 100 100
100 98 100 95 100 100 100 100 100 100 100 100 100 100 100 100 100 100 100 100 100 100 100 94 89 99 100 100 100 100 100 100 100 100 100 100 100 100 100 100 100 100 100 100
100 100 100 100 100 100 100 95 89 100 100 100 100 100 100 100 100 100 100 100 100 100 100 89 99 100 100 100 100 100 100 100 100 100 100 100 100 100 100 100 100 100 100 100
100 100 100 100 100 100 100 100 100 100 100 100 100 100 100 89 100 100 100 100 100 100 100 100 100 100 100 100 100 100 100 100 100 100 100 100 100 100 100 100 100 100 100 100
100 100 100 100 100 100 100 100 91 100 100 95 100 100 100 100 100 100 100 100 100 100 100 100 100 100 100 100 100 100 100 100 100 100 100 100 100 100 100 100 100 100 100 100
100 100 100 100 100 100 100 96 100 100 100 100 100 100 100 100 100 100 100 100 100 100 100 100 100 100 100 100 100 100 100 100 100 100 100 100 100 100 100 100 100 100 100 100
92 99 100 100 100 69 100 100 100 100 100 100 100 100 100 100 100 100 100 100 100 100 100 100 100 100 100 100 100 100 100 100 100 100 100 100 100 100 100 100 100 100 100 100

GFSCGP_prec_cloud_102.txt.gz
Cloud_Cover
14 67 100 100 90 4 0 0 0 0 0 0 0 0 0 0 0 0 0 0 0 0 5 0 0 5 79 88 100 100 100 100 100 100 100 100 95 100 100 100 42 65 19 28
100 100 100 85 18 4 5 16 4 0 0 0 0 0 0 0 0 0 0 0 0 0 0 0 0 2 16 41 65 100 100 100 100 100 100 47 11 100 100 100 100 100 100 86
88 92 100 91 2 4 10 60 0 2 1 0 2 0 0 0 0 0 0 0 0 0 0 0 10 72 65 2 84 80 78 100 100 100 100 100 100 100 99 100 100 100 100 100
95 81 10 5 8 6 4 0 4 21 44 55 3 63 0 0 0 0 0 0 0 0 0 87 100 48 0 5 32 100 100 100 100 100 100 100 100 100 98 100 100 24 100 100
34 5 5 4 0 0 0 0 10 34 100 37 0 70 0 0 0 0 0 0 0 5 6 0 26 4 0 36 100 100 100 100 100 100 100 88 55 99 100 100 99 91 65 100
1 6 0 0 0 0 0 0 23 100 75 75 0 4 0 0 0 4 4 10 99 75 100 42 85 1 26 100 100 100 100 100 100 100 100 100 100 100 100 100 100 100 98 100
5 3 0 0 0 0 0 72 57 48 23 20 98 6 0 0 0 18 35 97 100 100 100 100 100 100 100 100 100 100 100 100 100 100 100 100 100 100 100 99 100 89 92 100
6 0 0 4 14 9 0 11 94 60 6 21 15 2 2 16 3 6 100 100 100 100 100 100 100 100 100 100 100 100 100 100 100 98 100 98 96 100 100 100 82 30 93 49
5 6 0 0 1 36 2 3 12 5 40 94 80 100 100 80 100 100 100 100 100 100 100 100 100 100 100 100 100 100 100 100 100 100 71 47 100 100 100 100 100 95 100 42
26 35 0 5 1 2 8 93 72 66 100 100 100 100 100 100 100 100 100 100 100 100 100 100 100 100 100 100 100 100 100 100 100 100 100 100 98 100 100 100 98 100 100 100
28 10 4 0 70 72 61 48 100 94 83 100 100 100 100 100 100 100 100 100 100 100 100 100 100 100 100 100 100 100 100 100 100 100 100 100 100 100 100 100 100 100 100 100
7 55 59 92 100 100 100 100 99 98 100 100 100 100 100 100 100 100 100 100 100 100 100 100 100 100 100 100 100 100 100 100 100 100 43 91 100 100 100 100 100 100 100 100
87 72 64 78 83 96 100 100 100 100 100 100 100 100 100 100 100 100 100 100 100 100 100 100 100 100 100 100 100 100 100 100 100 100 94 92 100 100 100 100 100 100 100 100
78 100 99 100 100 100 100 100 100 100 100 100 100 100 100 100 100 100 100 100 100 100 100 100 100 100 100 100 100 100 100 100 100 100 100 100 100 100 100 100 100 100 96 97
100 100 100 77 100 100 99 97 100 100 100 100 100 100 100 100 100 100 100 100 100 100 100 100 100 100 100 100 100 100 100 100 100 100 100 100 100 100 100 100 100 100 99 100
100 100 100 100 100 100 100 100 100 100 100 100 100 100 100 100 100 100 100 100 100 100 100 100 100 100 100 100 100 100 100 100 100 100 100 100 100 100 100 100 100 100 100 100
100 100 100 100 100 100 83 100 100 100 100 100 100 100 100 92 100 100 100 100 100 100 100 100 100 100 100 100 100 100 100 100 100 100 100 100 100 100 100 100 100 100 100 100
100 100 100 100 100 100 100 100 100 100 100 100 100 100 100 100 100 100 100 100 100 100 100 100 100 100 100 100 100 100 100 100 100 100 100 100 100 100 100 100 100 100 100 100
100 100 100 100 100 100 100 100 100 100 100 100 100 100 100 100 100 100 100 100 100 100 100 100 100 100 100 100 100 100 100 100 100 100 100 100 100 100 100 100 100 100 100 100
100 100 100 100 100 100 100 100 100 100 100 100 100 100 100 100 100 100 100 100 100 100 100 100 100 100 100 100 100 100 100 100 100 100 100 100 100 100 100 100 100 100 100 100
100 100 100 100 100 100 100 100 100 100 100 100 100 100 100 100 100 100 100 98 98 100 100 100 98 98 100 100 100 100 99 100 100 100 100 100 100 100 100 100 100 100 100 100
100 100 100 100 100 100 100 100 100 100 100 100 100 86 99 100 100 100 100 100 100 100 100 96 100 98 100 100 89 90 100 100 100 100 100 100 100 100 100 100 100 100 100 100
100 100 100 100 100 100 100 100 100 94 100 100 92 86 100 92 100 100 100 100 100 100 100 100 100 100 100 94 100 83 100 94 80 75 100 100 100 100 100 100 100 100 100 100
100 100 100 100 100 100 100 100 100 100 100 100 98 67 76 98 100 100 100 100 100 100 100 100 100 100 100 100 93 100 96 97 95 84 100 100 100 100 100 100 100 100 100 100
100 100 100 100 100 100 100 100 100 100 90 99 99 75 86 77 97 100 100 100 100 99 100 100 100 100 100 97 100 100 100 100 80 100 100 100 100 100 100 100 100 100 100 100
100 99 88 92 97 100 100 100 100 90 100 100 78 89 91 93 100 100 100 100 100 100 100 94 80 96 99 98 100 100 100 100 100 100 100 100 100 100 100 100 100 100 100 100

GFSCGP_prec_cloud_105.txt.gz
Cloud_Cover
12 57 98 100 100 88 13 1 5 99 100 100 82 1 3 5 6 34 0 0 0 0 0 0 2 0 0 0 4 0 60 98 44 100 100 100 100 100 100 100 100 100 100 100
69 44 99 100 100 100 97 86 86 100 100 40 4 0 5 4 0 0 0 0 0 0 0 0 0 4 0 0 4 0 19 100 73 100 100 100 100 100 77 72 98 100 100 100
98 100 46 53 29 5 6 100 100 100 100 5 2 0 0 0 0 0 0 0 0 0 0 0 0 0 1 0 0 0 5 83 97 100 100 100 86 62 100 100 100 99 78 98
77 88 75 14 96 100 11 95 40 26 12 4 1 3 0 0 0 0 0 0 0 0 1 22 0 0 0 0 0 0 5 90 99 100 100 100 100 88 100 92 71 100 100 100
100 100 100 100 80 100 83 100 100 46 0 0 0 0 0 0 0 0 0 0 0 55 100 100 100 69 6 29 41 1 5 99 84 100 100 100 100 100 100 100 100 100 100 100
72 58 87 100 100 42 5 5 1 3 4 2 0 4 0 0 0 0 1 15 19 43 98 100 100 100 100 93 21 53 5 87 96 100 100 100 100 74 100 100 100 100 100 100
88 70 33 5 6 26 40 5 4 8 1 2 0 1 0 7 6 37 81 99 47 94 95 100 100 100 100 100 100 100 97 100 100 100 100 100 100 96 87 100 99 100 100 100
100 62 100 100 82 13 1 22 88 8 4 4 29 84 89 100 100 100 100 100 100 100 100 100 100 100 100 100 100 100 100 100 100 100 100 100 100 100 50 95 100 100 99 100
5 3 4 2 0 3 0 0 9 78 6 17 6 36 99 100 100 100 100 100 100 100 100 100 100 100 100 100 100 100 100 100 100 100 100 100 100 76 100 100 100 100 100 100
48 43 0 0 0 2 1 51 28 91 44 98 100 99 100 100 100 100 100 100 100 100 100 100 100 100 100 100 100 100 100 100 100 100 100 100 100 100 100 100 100 100 100 100
2 4 2 0 0 8 67 69 91 89 78 100 100 100 100 100 100 100 100 100 100 100 100 100 100 100 100 100 100 100 100 100 100 100 100 100 100 100 100 100 100 100 100 100
2 66 74 29 94 75 94 100 100 100 100 100 100 100 100 100 100 100 100 100 100 100 100 100 100 100 100 100 100 100 100 100 100 100 100 100 100 100 100 100 100 100 100 100
6 77 78 100 100 96 99 100 100 100 100 100 100 100 100 100 100 100 100 100 100 100 100 100 100 100 100 100 100 100 100 100 100 100 100 100 100 100 100 100 100 100 100 100
21 97 85 25 96 100 100 100 100 100 100 100 100 100 100 100 100 100 100 100 100 100 100 100 100 100 100 100 100 100 100 100 100 100 100 100 100 100 100 100 100 100 100 100
98 100 100 100 100 100 100 100 100 100 100 100 100 100 100 100 100 100 100 100 100 100 100 100 100 100 100 100 100 100 100 100 100 100 100 100 100 100 100 100 100 100 100 93
100 100 100 100 100 100 100 100 100 100 100 100 100 100 100 100 100 100 100 100 100 100 100 100 100 100 100 100 100 100 100 100 100 100 100 100 100 100 100 100 100 100 100 100
100 100 100 100 100 100 100 100 100 100 100 100 100 100 100 100 100 100 100 100 100 100 100 100 100 100 100 100 100 100 100 100 100 100 100 100 100 100 100 100 100 100 100 100
100 100 100 100 100 100 100 100 100 100 100 100 100 100 100 100 100 100 100 100 100 100 100 100 100 100 100 100 100 100 100 100 100 100 100 100 100 100 100 100 100 100 100 100
100 100 100 100 100 100 100 100 100 100 100 100 100 100 100 88 100 100 100 100 100 100 100 100 100 100 100 100 100 100 100 100 100 100 100 100 100 100 100 100 100 100 100 100
100 100 100 100 100 100 100 100 100 100 100 100 100 100 100 85 100 98 98 100 100 100 100 100 100 100 100 100 100 100 100 100 100 100 100 100 100 100 100 100 100 100 100 100
100 100 100 100 100 100 100 100 100 100 100 100 100 100 100 92 100 100 91 86 98 100 100 100 100 100 100 100 100 100 100 100 100 100 100 100 100 100 100 100 100 100 100 100
100 100 100 100 100 100 100 100 100 100 100 100 100 100 100 91 100 95 94 100 100 100 100 96 100 100 100 100 100 100 100 100 100 100 100 100 100 100 100 100 100 100 100 100
100 100 100 100 100 100 100 100 100 100 100 100 100 100 100 76 75 89 100 100 100 100 100 99 100 100 100 100 100 100 100 100 100 100 100 99 100 100 100 100 100 100 100 100
100 100 100 99 100 100 91 100 99 100 100 100 99 85 76 100 100 100 96 95 74 50 69 76 96 100 100 100 95 100 82 95 100 100 92 98 100 98 97 100 100 100 100 100
100 100 100 100 100 100 100 100 100 100 86 88 86 82 92 82 95 89 37 5 7 5 12 25 89 100 99 92 89 88 93 97 99 100 99 87 90 78 92 100 100 100 100 100
100 100 100 100 100 100 100 100 100 100 89 83 82 94 92 87 92 38 5 5 5 14 64 28 60 70 93 63 74 74 99 90 87 99 100 96 98 91 100 99 96 100 100 100

GFSCGP_prec_cloud_111.txt.gz
Cloud_Cover
60 5 24 41 40 75 78 12 1 5 5 5 5 17 36 2 4 4 100 100 28 5 5 54 100 100 84 100 100 100 100 99 53 5 33 95 100 100 51 18 100 100 94 100
27 89 34 5 5 5 5 5 5 4 5 0 0 1 26 22 100 94 48 56 76 5 44 13 96 100 100 100 100 100 100 100 15 0 0 0 0 98 64 44 56 100 100 100
7 6 5 29 21 50 35 42 84 30 10 8 10 1 100 99 5 5 2 13 53 81 80 59 100 100 100 100 100 100 87 100 19 3 0 0 21 58 94 100 100 100 100 100
100 100 95 97 100 100 93 100 52 99 99 72 100 18 5 3 4 1 93 100 100 100 100 100 100 100 100 100 100 100 100 100 100 95 4 0 0 34 86 97 100 100 100 100
100 100 100 100 100 90 98 100 90 100 100 100 100 94 0 1 48 95 100 100 100 100 98 100 100 100 100 74 66 100 91 31 100 65 3 0 0 0 0 39 82 100 100 100
100 100 100 100 86 100 100 97 100 100 100 100 100 35 24 20 100 100 100 96 75 52 39 100 100 100 100 100 100 100 100 100 56 52 0 0 0 0 0 42 59 100 100 100
75 47 17 54 100 99 100 100 100 100 100 100 100 100 78 100 100 100 100 100 81 48 58 68 94 98 98 100 100 100 100 100 100 99 1 0 4 26 17 52 35 100 100 100
53 92 96 100 100 98 100 100 100 100 100 99 100 42 5 99 60 82 100 99 72 72 60 54 96 100 100 100 100 100 100 100 100 100 82 10 0 100 82 70 68 76 100 100
96 55 100 100 100 48 56 85 89 93 54 7 4 18 61 76 64 54 67 58 65 73 78 90 100 100 100 100 100 100 100 100 100 100 100 80 51 100 100 100 89 34 100 79
100 100 100 100 99 100 100 93 77 80 87 89 4 4 26 68 90 74 72 99 83 99 100 100 100 100 100 100 100 100 100 100 100 100 100 100 37 100 100 100 71 100 100 100
100 100 100 87 93 89 60 48 11 21 29 100 98 44 100 100 100 100 100 100 100 100 100 100 100 100 100 100 100 100 100 100 100 100 100 100 100 100 100 100 99 100 100 100
98 100 100 100 99 100 95 12 77 99 93 100 100 100 100 100 100 100 100 100 100 100 100 100 100 100 100 100 100 100 100 100 100 100 100 100 100 100 100 100 100 100 100 100
83 65 41 100 100 96 99 100 74 100 100 100 100 100 100 100 100 100 100 100 100 100 100 100 100 100 100 100 100 100 100 100 100 100 100 100 100 100 100 100 100 100 100 100
47 17 4 38 49 72 95 100 98 100 100 100 100 100 100 100 100 100 100 100 100 100 100 100 100 100 100 100 100 100 100 100 100 100 100 100 100 100 100 100 100 100 100 100
66 70 5 15 38 100 97 94 100 100 100 100 100 100 100 100 100 100 100 100 100 100 100 100 100 100 100 100 100 100 100 100 100 100 100 100 100 100 100 100 100 100 100 100
63 74 89 48 29 100 100 100 100 100 100 100 100 100 100 100 100 100 100 100 100 100 100 100 100 100 100 100 100 100 100 100 100 100 100 100 100 100 100 100 100 100 100 100
98 86 92 78 100 100 100 100 100 100 100 100 100 100 100 100 100 100 100 100 100 100 100 100 100 100 100 100 100 100 100 100 100 100 100 100 100 100 100 100 100 100 100 100
100 100 85 100 100 100 100 100 100 100 100 100 100 100 100 100 100 100 100 100 100 100 100 100 100 100 100 100 100 100 100 100 100 100 100 100 100 100 100 100 100 100 100 100
100 100 100 100 100 100 100 100 100 100 100 100 100 100 100 100 100 100 100 100 100 100 100 100 100 100 100 100 100 100 100 100 100 100 100 100 100 100 100 100 100 100 100 100
100 100 96 100 100 100 100 100 100 100 100 100 100 100 100 100 100 100 100 100 100 100 100 100 100 99 100 100 100 100 100 100 100 100 100 100 100 100 100 100 100 100 100 100
100 100 100 100 100 100 100 100 100 100 100 100 100 100 100 100 100 100 100 100 100 100 100 100 100 100 100 100 100 100 100 100 100 100 100 100 100 100 100 100 100 100 100 100
100 100 100 100 100 100 100 100 100 100 100 100 100 100 100 100 100 100 100 100 100 100 100 100 100 100 100 100 100 100 100 100 100 100 100 100 100 100 100 100 100 100 100 100
100 100 100 100 100 100 100 100 100 100 100 100 100 100 100 100 100 100 100 100 100 100 100 100 100 46 99 98 100 100 100 100 100 100 100 100 100 100 100 100 100 100 100 100
100 100 100 100 100 100 100 100 100 100 100 100 100 100 100 100 100 100 86 94 94 100 100 94 61 100 52 100 100 100 100 100 100 100 100 100 100 100 100 100 100 100 100 100
100 100 100 100 100 100 100 100 100 100 100 100 100 100 100 100 61 34 19 23 51 47 94 100 100 100 91 69 82 100 100 100 100 100 100 100 100 100 100 100 100 100 100 100
100 100 100 98 64 100 100 100 100 100 100 100 100 100 100 100 14 87 5 5 5 5 7 45 72 61 97 98 94 76 47 29 65 82 100 100 100 100 100 89 53 100 100 100

GFSCGP_prec_cloud_114.txt.gz
Cloud_Cover
16 5 7 0 5 4 23 50 5 6 16 7 96 100 100 100 78 47 27 5 5 5 11 84 64 90 79 68 100 100 63 6 16 98 95 100 100 100 84 6 4 0 0 9
4 5 1 3 5 4 5 5 66 36 5 5 15 12 5 4 0 0 5 5 2 3 5 10 98 97 100 100 89 86 87 100 11 3 100 100 100 100 100 70 5 22 38 2
5 9 4 5 43 82 17 5 5 9 5 6 5 55 6 3 1 0 2 37 46 5 5 5 77 93 97 100 100 100 93 100 100 59 4 63 100 100 100 91 62 96 18 0
66 73 96 100 96 100 100 91 96 100 36 6 9 2 87 70 30 2 98 100 95 29 8 95 98 98 99 100 100 100 100 100 91 100 100 95 96 100 100 100 100 22 15 44
76 5 5 5 7 29 100 100 100 100 99 40 34 47 95 35 1 6 100 100 100 100 100 94 50 98 100 100 100 100 100 100 100 93 16 31 63 98 100 100 100 100 75 84
100 86 5 99 100 100 100 100 100 100 100 93 68 92 98 85 20 99 100 100 100 100 98 98 73 44 50 51 41 53 84 94 91 90 80 66 39 8 33 100 100 100 54 79
25 20 21 100 100 100 100 100 100 100 62 5 2 4 11 15 100 100 100 100 100 100 71 79 90 59 81 76 69 57 65 75 69 100 100 98 47 100 8 16 100 100 73 100
74 100 38 100 100 100 100 100 100 75 73 97 5 2 95 92 100 100 100 100 100 97 100 100 100 100 90 93 100 100 99 98 79 100 100 100 86 12 4 2 10 100 35 100
93 99 100 100 100 100 99 100 100 100 65 36 92 73 12 43 99 54 68 72 100 98 98 100 100 100 100 95 100 100 100 100 100 100 100 100 82 42 0 8 15 8 48 98
90 99 98 87 100 100 100 80 100 99 98 100 100 98 76 87 74 83 96 100 100 100 93 100 100 100 100 100 100 100 100 100 100 100 100 100 100 31 100 96 33 55 81 100
100 100 100 100 100 100 85 92 100 100 100 100 100 92 100 100 100 100 91 92 100 100 100 100 100 100 100 100 100 100 100 100 100 100 100 100 100 46 97 51 100 100 100 34
100 100 100 100 100 47 6 99 100 100 99 100 100 54 100 100 100 91 100 99 100 100 100 100 100 100 100 100 100 100 100 100 100 100 100 100 100 100 66 99 100 100 45 100
100 100 100 97 96 92 100 83 100 62 62 100 100 97 100 100 100 100 100 100 100 100 100 100 100 100 100 100 100 100 100 100 100 100 100 100 100 100 100 100 100 100 100 100
100 97 32 70 94 42 100 100 85 100 100 99 100 100 100 100 100 100 100 100 100 100 100 100 100 100 100 100 100 100 100 100 100 100 100 100 100 100 100 100 100 100 100 100
62 29 10 5 5 78 86 99 97 100 100 100 100 100 100 100 100 100 100 100 100 100 100 100 100 100 100 100 100 100 100 100 100 100 100 100 100 100 100 100 100 100 100 100
81 28 86 100 48 89 100 100 100 100 100 100 100 100 100 100 100 100 100 100 100 100 100 100 100 100 100 100 100 100 100 100 100 100 100 100 100 100 100 100 100 100 100 100
100 93 100 93 88 100 100 100 100 100 100 100 100 100 100 100 100 100 100 100 100 100 100 100 100 100 100 100 100 100 100 100 100 100 100 100 100 100 100 100 100 100 100 100
100 100 100 98 95 100 100 100 100 100 100 100 100 100 100 100 100 100 100 100 100 100 100 100 100 100 100 100 100 100 99 100 100 100 100 100 100 100 100 100 100 100 100 100
99 100 100 100 98 100 100 100 100 100 100 100 100 100 100 100 100 100 100 100 100 100 100 100 100 100 100 100 100 100 100 100 100 100 100 100 100 100 100 100 100 100 100 100
100 100 100 99 100 100 100 100 100 100 100 100 100 100 100 100 100 100 100 100 100 100 100 100 100 100 99 100 100 100 100 100 100 100 100 100 100 100 100 100 100 100 100 100
100 100 97 100 100 100 100 100 100 100 100 100 100 100 100 100 100 100 100 100 99 100 100 100 100 100 100 100 100 100 100 100 100 100 100 100 100 100 100 100 100 100 100 100
100 100 100 100 100 100 100 100 100 100 100 100 100 100 100 100 100 100 100 100 100 93 99 96 100 68 100 96 100 100 100 100 100 100 100 100 100 100 100 100 100 100 100 100
100 96 100 100 100 100 100 100 100 100 100 81 82 99 97 100 100 100 100 100 100 100 100 91 97 89 100 100 100 100 100 100 100 100 100 100 100 100 100 100 100 100 100 100
100 100 100 99 100 100 100 100 100 100 100 100 100 100 100 97 100 100 100 99 100 100 100 100 100 98 98 97 100 100 100 100 100 100 100 100 100 100 100 100 100 100 100 100
100 100 100 100 100 100 100 100 100 100 100 100 100 100 100 100 100 99 63 60 33 76 100 98 100 100 100 74 73 79 100 100 100 99 100 100 100 100 100 100 100 100 100 100
100 99 100 100 99 100 100 100 100 89 100 100 100 100 100 100 100 45 5 5 5 5 5 20 43 92 90 100 99 100 96 55 100 100 100 100 100 100 100 100 100 100 100 100

GFSCGP_prec_cloud_117.txt.gz
Cloud_Cover
5 18 10 80 51 95 80 93 69 0 0 0 1 0 5 5 5 5 99 100 100 100 100 100 100 96 77 18 5 5 5 0 4 5 36 100 100 100 100 100 100 100 100 100
5 5 5 5 6 19 5 17 1 0 0 0 0 4 0 3 10 5 6 5 96 100 98 71 53 18 5 5 2 5 94 48 35 23 61 81 69 38 12 24 89 100 100 100
72 34 13 5 5 0 0 0 0 0 0 0 5 0 0 5 4 7 5 5 5 5 8 5 5 5 4 5 3 4 0 29 91 46 6 16 81 67 5 33 30 100 100 100
5 15 8 88 2 21 5 44 3 4 2 0 13 5 0 91 100 41 0 61 6 8 5 5 5 5 5 5 8 35 47 18 86 100 100 85 4 4 5 6 100 36 100 100
16 4 5 5 38 62 41 95 96 100 13 46 0 100 1 100 100 100 25 6 5 5 98 100 100 89 83 65 74 74 92 88 100 100 100 81 94 95 100 85 84 100 18 100
2 4 0 0 0 6 61 79 91 62 99 53 72 100 6 92 98 94 27 86 100 100 100 100 100 69 100 100 100 100 100 99 81 94 97 100 84 52 19 9 100 100 95 68
5 5 5 10 94 31 5 50 20 80 100 48 99 88 100 100 53 80 96 34 19 88 74 90 94 99 100 100 100 100 100 100 98 89 100 100 100 90 97 100 45 100 100 100
94 98 99 65 100 100 95 95 100 78 100 99 99 6 100 5 22 100 100 95 100 100 98 99 78 100 100 100 100 100 100 100 100 100 100 96 100 100 77 31 72 100 100 100
96 100 100 100 100 89 14 6 98 54 80 84 90 100 100 34 69 82 100 89 100 100 100 100 100 100 100 100 100 100 100 100 100 100 100 100 100 100 100 30 2 22 77 100
100 98 100 77 79 5 5 86 64 98 100 100 100 100 100 100 100 100 98 100 100 100 100 100 100 100 93 81 100 100 100 100 100 100 100 100 100 100 100 98 0 0 0 57
96 17 58 5 18 17 49 100 99 100 100 100 100 100 100 100 100 92 100 94 81 100 100 100 91 91 100 100 93 100 100 100 100 100 100 100 100 100 100 100 0 0 0 0
48 96 84 8 79 99 100 86 99 100 100 100 98 100 100 100 100 100 100 100 100 100 100 100 100 100 100 100 100 100 100 100 100 100 100 100 100 100 100 96 91 65 11 9
96 20 83 100 100 95 100 90 61 99 94 83 100 92 100 100 100 100 100 100 100 100 100 100 100 100 100 100 100 100 100 100 100 100 100 100 100 100 100 100 100 100 85 100
47 100 100 100 100 100 100 98 92 89 86 96 94 100 100 100 100 100 100 100 100 100 100 100 100 100 100 100 100 100 100 100 100 100 100 100 100 100 100 100 100 100 100 100
100 100 100 96 40 26 64 75 100 100 65 100 100 100 100 100 100 100 100 100 100 100 100 100 100 100 100 100 100 100 100 100 100 100 100 100 100 100 100 100 100 100 100 100
100 100 28 5 5 78 95 82 100 100 100 100 100 100 100 100 100 100 100 100 100 100 100 100 100 100 100 100 100 100 100 100 100 100 100 100 100 100 100 100 100 100 100 100
92 66 89 89 91 35 83 100 100 100 100 100 100 100 100 100 100 100 100 100 100 100 100 100 100 100 100 100 100 100 100 100 100 100 100 100 100 100 100 100 100 100 100 100
70 98 100 97 90 100 100 100 100 100 100 100 96 100 100 100 100 100 100 100 100 100 100 100 100 100 100 100 100 100 94 100 100 100 100 100 100 100 100 100 100 100 100 100
100 100 100 95 100 90 100 100 100 100 100 100 100 100 100 100 100 100 100 100 100 100 100 100 100 100 100 90 100 100 100 100 100 100 100 100 100 100 100 100 100 100 100 100
100 100 100 100 100 100 100 100 100 100 100 100 100 100 100 100 100 100 100 100 100 100 100 100 100 81 98 84 90 100 100 100 100 100 100 100 100 100 100 100 100 100 100 100
100 100 82 100 100 100 100 100 99 100 100 100 100 100 100 100 100 100 100 100 100 100 100 100 100 100 96 74 100 100 100 100 100 100 100 100 100 100 100 100 100 100 100 100
91 98 100 99 100 100 100 100 100 100 100 100 100 100 100 100 100 100 100 100 100 100 100 100 100 100 98 99 100 100 100 100 100 100 100 100 100 100 100 100 100 100 100 100
92 81 97 96 98 100 100 100 100 100 100 100 100 100 100 94 100 100 100 100 100 100 100 100 100 100 100 78 99 100 100 100 100 100 100 100 100 100 100 100 100 100 100 100
85 21 91 55 96 100 100 100 100 100 100 100 100 100 100 100 100 100 100 100 100 100 100 100 100 100 70 100 83 100 100 100 100 100 100 100 100 100 100 100 100 100 100 100
74 67 100 100 100 100 100 100 100 100 100 100 100 92 96 91 100 80 100 85 42 97 100 100 100 100 100 86 33 100 43 100 100 100 99 100 100 100 100 100 100 100 100 100
54 95 78 100 98 91 91 100 100 100 100 100 100 100 100 100 100 100 10 35 21 6 5 9 98 100 100 100 100 91 90 91 85 97 100 100 100 100 100 100 100 100 100 100

GFSCGP_prec_cloud_120.txt.gz
Cloud_Cover
100 100 100 100 100 74 82 69 5 5 5 88 0 0 0 0 0 5 5 0 0 1 0 0 1 15 100 100 100 100 100 100 100 100 50 71 40 5 49 1 8 100 100 100
5 8 86 66 100 100 100 100 82 5 1 1 0 0 1 0 0 0 0 0 0 0 0 0 0 0 12 98 100 100 100 100 100 100 100 65 14 6 7 35 5 10 88 100
5 30 98 100 100 100 100 100 47 5 5 0 1 0 0 0 0 4 46 26 1 0 0 0 3 1 0 2 10 18 36 33 22 5 5 5 5 21 39 6 22 26 5 42
5 7 15 7 16 74 27 24 2 3 0 0 0 2 2 0 0 89 100 73 0 0 4 2 0 2 5 5 5 5 5 4 5 11 5 47 29 34 67 100 93 100 90 16
23 7 6 5 5 6 2 2 3 5 2 3 2 84 2 0 8 32 6 17 98 100 100 100 56 6 5 5 5 5 5 5 5 53 100 100 88 8 5 5 5 15 98 85
16 88 90 95 20 5 5 12 5 20 50 57 0 2 0 12 12 61 100 100 100 100 97 48 92 59 28 5 5 9 6 60 38 8 64 100 100 100 63 70 9 34 16 100
8 1 0 3 3 5 5 31 83 53 99 58 27 100 100 36 5 24 6 100 100 89 50 89 41 56 64 82 60 76 99 100 100 88 87 100 100 100 100 100 100 99 82 94
31 7 57 35 9 5 30 100 100 98 65 99 9 9 100 78 95 96 100 100 100 100 26 61 66 74 94 100 100 100 100 100 98 100 100 100 100 100 100 100 100 100 100 8
36 6 40 5 24 8 90 100 100 100 100 23 2 60 100 82 86 71 52 94 100 100 100 100 100 100 100 100 98 100 100 100 86 100 100 100 100 100 100 100 100 96 0 0
45 5 5 8 30 14 100 95 12 60 43 98 99 100 100 100 100 100 100 100 100 68 82 98 87 72 92 80 87 96 53 86 100 100 100 100 100 100 100 100 100 100 38 6
5 5 0 0 2 5 95 91 32 52 78 100 100 100 100 100 100 100 100 100 89 76 72 91 76 92 97 76 91 99 96 100 100 100 100 100 100 100 100 100 100 98 97 6
78 8 2 5 43 59 58 55 61 100 100 100 98 5 80 100 100 100 100 100 90 79 70 81 98 100 100 100 100 100 100 100 100 100 100 100 100 100 100 100 100 100 99 40
3 4 4 5 48 53 92 88 100 90 99 65 87 93 99 100 99 99 98 100 99 98 100 100 100 100 100 100 100 100 100 100 100 100 100 100 100 100 100 100 100 100 100 100
5 7 14 52 84 100 100 100 98 58 8 7 72 96 100 100 98 98 100 100 100 100 100 100 100 100 100 100 100 100 100 100 100 100 100 100 100 100 100 100 100 100 100 100
5 53 22 99 94 92 97 37 75 59 46 82 55 100 100 100 100 100 100 100 100 100 100 100 100 100 100 100 100 100 100 100 100 100 100 100 100 100 100 100 100 100 100 100
43 100 100 100 97 8 5 3 5 5 22 77 71 99 100 100 100 100 100 100 100 100 100 100 100 100 100 100 100 100 100 100 100 100 100 100 100 100 100 100 100 100 100 100
100 100 100 95 60 82 44 5 34 53 100 100 99 100 100 100 100 100 100 100 100 100 100 100 100 100 100 100 100 100 100 100 100 100 100 100 100 100 100 100 100 100 100 100
100 100 95 74 77 94 16 24 100 100 100 94 99 100 100 100 100 100 100 100 100 100 100 100 100 100 100 100 100 100 100 100 100 100 100 100 100 100 100 100 100 100 100 100
100 100 97 98 98 62 77 99 100 100 100 100 100 100 100 100 100 100 100 100 100 100 100 100 100 100 100 100 100 100 100 100 100 100 100 100 100 100 100 100 100 100 100 100
100 67 100 96 100 100 100 100 100 100 100 100 100 100 100 100 100 100 100 100 100 100 100 100 100 100 100 100 100 60 100 100 100 100 100 100 100 100 100 100 100 100 100 100
100 99 90 100 100 80 94 100 100 100 100 100 100 100 100 100 100 100 100 100 100 100 100 100 100 100 100 97 60 93 100 100 100 100 100 100 100 100 100 100 100 100 100 100
100 90 86 95 100 98 100 100 76 100 100 100 100 100 100 100 100 100 100 100 100 100 100 100 100 100 100 100 99 82 100 100 100 100 100 100 100 100 100 100 100 100 100 100
99 99 92 100 98 78 100 100 100 100 91 100 100 100 100 100 100 100 100 100 100 100 100 100 100 100 100 100 100 64 42 100 100 100 100 100 100 100 100 100 100 100 100 100
11 5 38 18 84 83 100 100 100 100 100 99 100 100 100 100 100 100 100 100 100 100 100 100 100 100 100 100 100 100 81 100 100 100 100 100 100 100 100 100 100 100 100 100
56 5 83 84 88 82 100 100 100 100 100 100 99 100 100 100 100 100 100 100 100 100 100 100 100 100 100 100 100 100 100 38 100 100 100 100 100 99 100 100 100 100 100 100
5 44 54 82 26 65 97 100 100 100 100 100 100 100 100 100 100 100 100 100 92 98 100 99 95 97 100 100 100 100 100 100 36 15 100 100 100 100 99 100 100 100 100 100

GFSCGP_prec_cloud_123.txt.gz
Cloud_Cover
100 100 100 100 100 100 100 100 100 100 98 100 96 21 100 87 100 100 100 100 5 0 0 0 0 0 0 0 0 0 0 0 25 100 100 100 100 100 100 30 30 10 8 76
99 39 94 89 8 3 4 4 5 5 43 93 88 93 87 83 68 97 34 29 1 0 0 0 0 0 0 0 0 0 0 0 0 1 87 100 100 100 100 100 73 50 3 14
97 77 79 46 32 5 5 6 25 3 4 5 5 45 39 100 19 59 2 0 0 0 0 0 0 0 0 0 0 0 0 0 5 5 12 19 100 100 100 100 100 92 94 14
92 100 100 96 20 10 5 5 0 1 5 5 82 22 0 0 0 4 4 4 0 0 0 55 84 6 0 0 4 5 1 0 0 5 82 35 4 45 100 100 100 90 87 54
8 49 1 0 4 5 0 1 4 0 0 0 85 41 11 1 2 0 0 0 0 6 20 98 61 35 100 100 100 100 87 7 5 5 5 30 18 2 31 12 58 85 11 96
5 1 5 5 5 3 2 4 5 5 3 0 22 85 6 5 2 2 4 12 82 16 27 40 32 5 5 47 94 65 60 74 61 5 5 5 6 7 20 61 18 5 3 16
5 7 30 5 3 4 5 5 3 2 5 2 5 96 100 5 5 10 81 91 95 8 5 6 34 5 5 5 6 42 61 56 54 15 5 5 33 86 74 74 95 75 10 6
5 8 43 5 5 9 46 71 65 76 3 5 28 71 100 20 84 98 79 86 100 67 6 23 15 6 25 36 49 78 97 100 95 41 55 49 74 100 100 100 100 96 76 67
5 5 3 0 0 1 5 5 97 100 20 29 10 71 19 15 33 50 26 15 87 9 7 39 44 48 64 51 97 100 100 98 97 100 100 100 100 100 100 100 100 100 90 75
14 3 0 0 3 28 5 5 4 84 48 51 10 39 100 92 100 100 100 100 87 85 46 45 51 60 36 52 98 100 68 99 98 98 100 100 100 100 100 100 100 100 100 100
5 0 0 5 5 24 72 5 47 64 54 29 14 2 99 100 70 91 100 85 99 97 38 66 47 36 60 81 99 100 96 100 88 100 100 100 100 100 100 100 100 100 100 100
1 0 0 0 0 1 5 10 70 100 7 99 100 37 55 100 61 97 93 100 100 98 76 70 71 80 100 100 100 100 100 100 100 100 100 100 100 100 100 100 100 100 100 100
5 14 4 0 0 1 3 5 13 99 99 100 52 48 66 28 57 100 100 100 100 99 78 74 97 100 100 100 100 100 100 100 100 100 100 100 100 100 100 100 100 100 100 100
5 5 5 3 5 3 1 29 18 75 100 66 6 53 98 100 100 100 100 100 100 95 100 100 100 100 100 100 100 100 100 100 100 100 100 100 100 100 100 100 100 100 100 100
70 5 5 5 5 5 5 87 98 100 71 99 11 16 39 86 100 98 96 100 100 100 100 100 100 100 100 100 100 100 100 100 100 100 100 100 100 100 100 100 100 100 100 100
15 44 61 98 6 84 100 100 18 5 2 2 5 53 97 100 100 100 100 100 100 100 100 100 100 100 100 100 100 100 100 100 100 100 100 100 100 100 100 100 100 100 100 100
83 100 36 100 37 100 100 25 5 5 5 39 86 97 96 100 100 100 100 100 100 100 100 100 100 100 100 100 100 100 100 100 100 100 100 100 100 100 100 100 100 100 100 100
100 98 76 100 41 99 63 5 5 5 98 94 97 100 100 100 100 100 100 100 100 100 100 100 100 100 100 100 100 100 100 100 100 100 100 100 100 100 100 100 100 100 100 100
100 100 100 100 79 89 41 5 14 96 100 100 100 100 100 100 100 100 100 100 100 100 100 100 100 100 100 100 100 100 100 100 100 100 100 100 100 100 100 100 100 100 100 100
100 100 100 100 100 62 31 84 98 100 100 100 100 100 100 100 100 100 100 100 100 100 100 100 100 100 100 100 100 100 100 100 100 100 100 100 100 100 100 100 100 100 100 100
100 100 100 100 100 78 24 25 76 100 100 100 100 100 100 100 100 100 100 100 100 100 100 100 100 100 100 100 100 100 100 100 99 99 100 100 100 100 100 100 100 100 100 100
100 100 100 100 100 73 56 5 63 100 100 100 100 100 100 100 100 100 100 100 100 100 100 100 100 100 100 100 100 100 100 97 94 100 90 100 100 100 100 100 100 100 100 100
100 100 100 100 45 57 53 57 86 100 100 100 100 100 100 100 100 100 100 100 100 100 100 100 100 100 100 100 100 100 100 100 46 59 100 100 100 100 100 100 100 100 100 100
100 100 100 100 29 29 92 46 56 100 100 98 95 100 100 100 100 100 100 100 100 100 100 100 100 100 100 100 100 100 100 100 100 74 84 98 100 100 100 100 100 100 100 100
100 100 100 70 38 14 63 86 31 100 100 100 100 100 100 100 100 100 100 100 100 100 100 100 100 100 100 100 100 100 100 100 100 95 59 93 98 100 91 100 100 98 100 100
100 100 17 7 5 5 8 65 94 100 100 100 98 100 100 100 100 100 100 100 100 100 100 100 100 100 100 100 100 100 100 100 100 100 100 29 57 100 98 18 100 100 97 100

GFSCGP_prec_cloud_126.txt.gz
Cloud_Cover
3 1 52 100 96 7 5 56 97 100 100 69 44 100 80 45 3 1 5 5 4 4 4 5 14 9 0 0 0 0 0 0 0 0 0 0 0 24 5 11 75 46 100 100
8 65 45 5 20 90 76 17 29 24 22 10 52 58 18 6 24 2 4 46 32 0 0 0 0 0 0 0 0 0 0 0 0 0 0 0 0 2 0 85 18 100 38 90
2 4 0 1 0 0 0 0 3 38 99 94 22 6 82 49 3 0 0 0 0 0 0 0 0 0 0 0 0 2 2 0 0 0 0 1 0 0 5 3 67 88 62 30
3 10 5 0 0 0 0 0 0 0 4 19 78 5 5 1 0 0 0 0 4 0 3 2 5 5 5 5 5 5 5 5 5 5 5 5 5 5 4 6 52 6 64 100
4 5 5 5 4 0 0 0 0 0 0 0 4 0 0 0 2 5 0 0 3 5 5 5 5 5 5 5 5 6 6 5 20 66 89 14 5 5 5 5 81 99 50 5
4 5 27 6 5 5 5 5 0 0 0 0 3 0 0 2 3 0 1 4 8 49 60 20 5 5 5 5 22 52 54 5 5 7 13 70 49 11 16 5 5 78 79 99
31 8 5 8 29 9 5 5 5 0 0 0 1 0 5 5 5 5 5 5 22 90 74 55 53 91 64 69 100 100 98 42 85 99 100 95 100 100 99 71 31 45 93 7
5 5 41 67 5 5 0 2 4 0 0 0 0 0 5 5 5 5 81 65 13 81 59 34 21 66 99 100 100 100 66 100 100 100 100 100 100 100 100 100 100 100 100 100
4 5 6 5 4 0 0 0 27 80 5 13 0 23 65 5 5 5 8 83 91 83 49 34 60 100 100 100 100 100 100 100 100 100 100 100 100 100 100 100 100 100 100 100
40 10 12 13 11 5 3 29 100 100 46 27 1 6 22 10 19 53 78 71 75 47 58 68 100 94 90 92 79 92 72 98 99 97 100 100 100 100 100 100 100 100 100 100
16 4 3 0 0 23 96 70 79 40 24 15 5 4 5 44 5 5 5 5 66 16 12 54 75 22 80 95 91 100 100 100 100 100 98 100 100 100 100 100 100 100 100 100
7 3 0 0 5 99 70 5 0 5 30 17 56 2 68 10 25 5 5 73 71 72 5 68 66 72 100 99 100 100 100 100 100 100 100 100 100 100 100 100 100 100 100 100
6 4 4 0 4 8 5 5 5 5 10 6 9 24 34 31 9 5 12 92 66 72 5 77 76 95 100 100 100 100 100 100 100 100 100 100 100 100 100 100 100 100 100 100
5 4 0 5 47 8 5 5 20 5 64 23 47 23 95 16 5 53 99 94 13 35 87 97 100 100 100 100 99 100 100 100 100 100 100 100 100 100 100 100 100 100 100 100
4 2 2 5 12 28 5 4 81 5 93 51 87 5 5 12 5 83 98 95 90 100 100 100 100 100 100 100 100 100 100 100 100 100 100 100 100 100 100 100 100 100 100 100
5 5 5 5 100 21 6 94 81 100 100 16 5 18 5 5 7 90 100 100 100 100 100 100 100 100 100 100 100 100 100 100 100 100 100 100 100 100 100 100 100 100 100 100
2 28 80 9 98 9 100 32 71 68 40 5 2 31 99 91 100 97 93 100 100 100 100 100 100 100 100 100 100 100 100 100 100 100 100 100 100 100 100 100 100 100 100 100
6 97 63 94 19 78 100 95 100 41 6 56 86 99 100 100 100 100 100 100 100 100 100 100 100 100 100 100 100 100 100 100 100 100 100 100 100 100 100 100 100 100 100 100
34 98 98 100 73 100 100 100 98 6 26 28 44 86 100 100 100 100 100 100 100 100 100 100 100 100 100 100 100 100 100 100 100 100 100 100 100 100 100 100 100 100 100 100
100 100 100 100 78 100 100 98 6 5 86 5 5 69 100 100 100 100 100 100 100 100 100 100 100 100 100 100 100 100 100 100 100 100 100 100 100 100 100 100 100 100 100 100
90 100 100 100 100 100 100 17 42 56 16 22 23 54 97 94 100 100 100 100 100 100 100 100 100 100 100 100 100 100 100 100 100 100 100 95 100 100 100 100 100 100 100 100
100 100 100 100 100 100 89 81 99 6 39 100 100 97 100 100 100 100 100 100 100 100 100 100 100 100 100 100 100 100 100 66 56 100 61 99 100 100 100 100 100 100 100 100
100 100 100 100 99 98 100 100 92 53 41 100 100 100 100 100 100 100 100 100 100 100 100 100 100 100 100 100 100 100 100 100 100 100 100 95 98 86 100 100 100 100 100 100
100 100 100 100 100 100 100 83 7 42 5 100 100 100 100 100 100 100 100 100 100 100 100 100 100 100 100 100 100 100 100 100 100 100 100 100 100 58 62 100 100 100 100 100
100 100 100 100 100 100 91 18 5 5 5 22 100 97 100 100 100 100 100 100 100 100 100 100 100 100 100 100 100 100 100 100 100 100 100 99 74 84 42 98 100 100 100 100
100 98 100 100 70 43 6 5 5 5 5 13 100 100 100 100 100 100 100 100 100 100 100 100 100 100 100 100 100 100 100 100 51 8 5 6 21 6 5 5 10 69 100 100

GFSCGP_prec_cloud_129.txt.gz
Cloud_Cover
100 100 100 75 67 5 6 5 36 29 23 49 51 5 5 3 2 4 5 5 5 1 5 10 7 5 5 1 7 88 91 93 7 2 3 0 0 0 0 0 0 0 1 26
66 96 100 97 54 83 60 12 14 7 4 0 4 4 4 0 0 0 0 0 5 5 5 5 5 5 3 2 4 5 5 5 5 5 5 5 5 0 0 0 0 4 0 1
100 100 100 100 90 8 1 2 4 2 4 8 5 2 0 0 0 0 0 0 0 0 0 4 4 1 2 5 5 5 5 5 5 5 5 5 5 5 3 0 0 0 0 0
99 76 16 4 1 1 0 0 0 0 0 1 0 0 0 0 0 0 0 1 5 5 5 5 5 5 5 5 14 14 17 5 5 5 5 5 5 5 5 5 5 5 3 0
5 5 5 5 5 5 5 5 5 4 0 0 1 4 0 0 0 3 5 5 5 5 5 5 5 5 5 7 74 98 100 26 42 77 98 100 100 94 83 66 14 6 5 0
78 5 11 7 5 11 5 1 3 0 0 0 0 0 0 4 2 0 5 5 5 5 5 5 5 9 44 96 100 92 93 55 100 100 100 100 100 100 100 100 100 99 83 36
100 100 100 100 100 56 5 5 1 0 0 0 0 0 0 5 5 3 5 5 5 5 5 9 66 100 100 100 85 57 64 100 100 100 100 100 100 100 100 100 100 100 100 100
100 100 100 98 30 71 6 4 1 1 0 0 0 0 0 5 5 5 5 5 5 5 5 24 72 100 100 100 26 77 86 100 64 100 100 100 100 100 100 100 100 100 100 100
34 19 72 30 5 2 3 4 2 48 5 4 0 3 5 5 5 5 5 5 21 5 5 35 90 55 92 94 64 91 99 69 65 93 82 99 100 100 100 100 100 100 100 100
19 49 67 14 24 20 5 1 6 54 81 55 0 0 0 7 5 5 5 11 21 5 5 16 69 24 79 64 39 44 45 97 98 94 86 98 100 100 100 100 100 100 100 100
90 80 25 59 77 52 87 90 64 95 41 82 4 3 4 5 5 5 5 5 19 5 9 22 14 6 12 26 34 85 100 100 100 100 100 100 100 100 100 100 100 100 100 100
100 97 94 100 86 8 8 5 5 100 11 6 21 0 5 31 5 5 21 47 5 5 6 11 5 5 6 43 95 100 100 96 82 100 100 100 100 100 100 100 100 100 100 100
99 38 95 81 24 5 5 5 14 100 74 1 5 1 5 5 13 52 12 5 5 5 5 5 5 9 40 99 100 100 100 100 100 100 100 100 100 100 100 100 100 100 100 100
98 29 5 3 5 19 26 7 99 97 55 3 10 13 97 73 5 5 5 6 7 25 14 59 85 77 100 100 100 100 100 100 100 100 100 100 100 100 100 100 100 100 100 100
100 88 4 4 5 10 0 4 8 16 4 4 61 97 81 24 11 5 5 10 50 100 100 100 100 100 100 100 100 100 100 100 100 100 100 100 100 100 100 100 100 100 100 100
100 83 11 5 5 5 1 5 91 5 12 38 92 100 54 5 5 7 17 100 100 100 100 100 100 100 100 100 100 100 100 100 100 100 100 100 100 100 100 100 100 100 100 100
100 100 99 5 5 5 5 100 6 58 100 66 48 12 9 60 29 90 100 100 100 100 100 100 100 100 100 100 100 100 100 100 100 100 100 100 100 100 100 100 100 100 100 100
100 100 96 47 5 52 93 100 44 84 100 74 39 25 33 93 87 94 100 100 100 100 100 100 100 100 100 100 100 100 100 100 100 100 99 100 100 100 100 100 100 100 100 100
98 10 100 92 86 6 100 100 96 50 97 20 12 84 100 81 73 99 100 100 100 100 100 100 100 100 100 100 100 100 100 100 100 100 100 100 100 100 100 100 100 100 100 100
100 49 70 75 96 58 100 100 53 83 75 7 5 98 83 42 86 89 100 100 100 100 100 100 100 100 100 100 100 100 100 100 100 100 100 100 100 100 100 100 100 100 100 100
22 37 73 97 85 100 100 26 33 48 25 5 13 5 42 41 82 100 100 100 100 100 100 100 100 100 100 100 100 100 100 100 100 100 100 100 100 100 100 100 100 100 100 100
82 98 100 100 100 100 100 5 69 14 5 5 5 5 9 89 99 100 100 100 100 100 100 100 100 100 100 100 100 100 100 100 100 99 100 100 100 100 100 100 100 100 100 100
100 100 100 100 100 100 100 96 29 5 35 6 5 5 18 98 100 100 100 100 100 100 100 100 100 100 100 100 100 100 100 100 91 63 97 97 90 100 100 100 95 100 100 100
100 100 100 97 100 100 100 100 35 69 5 5 5 5 5 77 100 100 100 100 100 100 100 100 100 100 100 100 100 100 100 100 100 100 100 98 88 95 100 48 17 6 97 100
100 100 100 100 100 100 100 100 100 34 34 5 5 5 5 69 100 100 100 100 100 100 100 100 100 100 100 100 100 100 100 100 100 100 100 100 97 82 47 93 77 7 55 96
100 100 100 98 100 95 100 100 64 29 5 5 5 5 5 62 98 100 100 100 100 100 100 100 100 100 100 100 100 100 100 100 100 100 43 13 5 5 5 5 5 28 89 100

GFSCGP_prec_cloud_132.txt.gz
Cloud_Cover
87 98 100 81 59 77 100 100 100 100 48 90 100 100 59 8 5 5 4 0 0 0 1 2 1 0 2 5 5 5 5 93 100 100 83 5 0 5 51 65 1 0 0 0
100 100 100 100 100 100 100 100 100 100 99 49 61 100 78 5 3 3 0 2 2 0 0 0 0 0 5 5 5 5 5 5 5 5 5 14 46 77 21 93 100 100 100 33
48 72 95 100 100 100 100 100 100 100 100 99 47 17 5 3 0 2 5 1 4 5 5 5 5 5 5 5 5 5 5 5 5 5 5 10 5 7 10 5 6 21 5 3
20 38 5 7 60 20 5 22 14 8 5 4 5 4 5 0 0 4 2 5 5 5 5 5 5 5 5 5 5 5 30 17 10 24 47 91 100 100 100 100 100 59 5 5
11 5 17 82 100 93 94 13 5 5 4 0 0 0 0 2 2 4 2 5 5 5 5 5 5 5 5 65 72 5 100 58 100 98 100 100 100 100 100 100 100 100 100 100
95 81 48 100 100 100 100 59 23 4 2 0 2 0 0 1 0 0 0 5 5 5 5 5 9 24 88 78 22 48 99 68 56 62 96 100 100 100 100 100 100 100 100 100
100 100 100 100 100 100 100 48 32 5 5 0 0 0 0 2 0 0 1 5 5 5 5 6 80 11 65 21 10 53 53 83 95 100 100 78 98 100 100 100 100 100 100 100
100 100 100 100 100 100 99 98 85 18 5 0 0 0 0 0 0 0 5 5 5 5 5 9 52 5 46 61 19 98 95 100 100 100 100 74 100 100 100 100 100 100 100 100
100 100 100 100 100 100 100 100 100 51 5 1 0 0 0 3 5 5 5 5 5 5 5 6 5 5 10 57 31 66 100 100 100 100 100 100 100 100 100 100 100 100 100 100
100 100 100 100 100 100 85 10 8 97 94 30 0 0 0 4 4 5 5 5 5 5 5 5 5 5 5 13 14 32 76 96 99 100 100 100 100 100 100 100 100 100 100 100
100 100 100 100 100 100 100 62 62 100 100 96 13 1 0 0 5 5 5 5 5 5 20 16 14 5 5 5 5 34 90 82 90 85 92 100 100 100 100 100 100 100 100 100
100 100 29 91 99 100 100 98 5 5 4 5 100 15 5 5 5 5 5 5 5 5 57 76 5 5 5 5 70 100 100 100 89 100 100 100 100 100 100 100 100 100 100 100
100 100 100 77 100 83 51 5 6 36 43 5 87 1 5 8 5 5 5 76 100 90 9 5 10 5 16 95 100 100 100 100 100 100 100 100 100 100 100 100 100 100 100 100
100 100 95 90 98 79 7 5 6 94 70 2 0 0 49 84 8 40 100 57 6 33 7 78 100 82 100 100 100 100 100 100 100 100 100 100 100 100 100 100 100 100 100 100
100 100 100 100 100 100 5 5 5 9 0 4 0 0 99 5 86 100 41 14 14 6 90 100 100 100 100 100 100 100 100 100 100 100 100 100 100 100 100 100 100 100 100 100
96 56 18 41 100 100 5 29 4 0 0 0 0 25 26 100 98 56 10 13 5 69 74 100 100 100 100 100 100 100 100 100 100 100 100 100 100 100 100 100 100 100 100 100
99 99 100 93 100 83 5 7 5 3 0 0 13 100 100 100 81 36 48 13 97 98 100 100 100 100 100 100 100 100 100 100 100 100 100 100 100 100 100 100 100 100 100 100
72 98 100 100 100 84 79 5 1 0 26 5 97 100 100 83 59 5 23 99 100 100 100 100 100 100 100 100 100 100 100 100 100 100 100 100 100 100 100 100 100 100 100 100
72 100 100 97 16 3 4 5 4 5 98 80 100 100 100 94 22 100 82 100 100 100 100 100 100 100 100 100 100 100 100 100 100 100 100 100 100 100 100 100 100 100 100 100
100 100 100 64 100 56 26 3 5 32 98 100 100 72 98 83 88 7 100 100 100 100 100 100 100 100 100 100 100 100 100 100 100 100 100 100 100 100 100 100 100 100 100 100
99 100 47 62 76 18 75 100 48 97 100 100 100 40 68 40 7 15 99 100 100 100 100 100 100 100 100 100 100 100 100 100 100 100 100 100 100 100 100 100 100 100 100 100
100 91 86 84 100 57 100 100 63 100 100 100 88 29 13 87 82 38 97 100 100 100 100 100 100 100 100 100 100 100 100 100 100 100 100 100 100 100 100 100 100 90 89 92
26 100 99 62 39 100 100 100 99 100 100 91 24 5 18 88 34 6 83 100 100 100 100 100 100 100 100 100 100 100 100 100 100 100 100 100 100 98 74 64 46 90 6 63
100 100 17 25 100 100 100 100 93 77 99 66 8 5 5 5 5 5 77 99 98 100 100 100 100 100 100 100 100 100 100 100 100 100 100 100 100 100 91 93 25 8 22 11
100 87 97 77 100 100 100 100 100 100 47 24 6 5 5 5 5 10 83 96 100 100 100 100 100 100 100 100 100 100 100 100 100 100 100 100 100 97 83 13 46 5 46 43
100 100 43 80 100 100 100 100 100 99 100 53 43 55 20 5 8 86 93 94 100 100 100 100 100 100 100 100 100 100 100 100 100 100 100 44 38 7 8 6 5 30 81 80

GFSCGP_prec_cloud_135.txt.gz
Cloud_Cover
100 100 100 100 100 100 100 100 100 100 100 100 100 100 97 47 34 22 9 5 5 5 6 5 5 5 3 5 5 5 5 5 5 5 3 0 0 0 0 0 0 0 0 0
11 84 100 100 100 99 97 100 100 100 100 100 100 100 100 100 100 100 80 67 30 16 5 0 0 2 5 5 5 5 5 5 5 5 5 11 5 0 0 0 0 12 5 1
5 5 5 15 27 21 18 60 86 94 63 59 78 92 100 98 67 94 76 29 7 5 3 1 2 5 5 5 5 5 5 5 5 5 5 5 5 5 5 4 24 25 42 40
5 5 5 63 15 5 14 33 39 14 6 6 6 15 61 64 68 24 5 4 4 5 2 5 5 5 5 5 5 5 21 7 5 18 16 44 57 32 35 67 64 99 100 94
5 13 63 100 76 42 99 64 7 5 5 1 2 3 98 5 5 8 5 5 4 5 5 5 5 5 5 5 5 8 56 32 52 94 97 100 100 96 100 100 100 92 100 100
97 13 72 99 73 42 6 19 12 6 5 3 0 0 31 5 5 5 0 0 4 5 5 5 5 5 5 5 8 12 36 50 72 94 100 100 100 99 100 100 100 100 100 100
100 100 100 100 100 100 73 36 16 5 5 5 5 0 5 72 5 2 0 0 5 5 5 5 5 5 5 5 5 19 64 77 92 98 100 100 100 100 87 100 100 100 100 100
100 100 100 100 100 100 100 98 100 25 5 5 4 0 5 5 5 5 2 4 5 5 5 5 5 5 5 5 7 70 72 90 88 100 100 100 100 100 100 100 100 100 100 100
100 100 100 100 100 100 100 100 100 100 20 3 3 5 5 4 1 5 5 5 5 5 5 5 5 5 5 5 14 64 92 90 96 99 100 100 100 100 100 99 100 100 100 100
100 100 100 100 100 100 100 100 100 100 86 24 5 1 71 5 5 4 5 5 5 5 5 5 5 5 5 5 5 23 82 85 100 92 99 100 100 98 100 100 100 100 100 100
100 100 100 100 100 91 79 68 77 90 35 94 25 2 100 2 1 0 1 5 5 5 5 5 5 5 5 5 5 38 96 100 95 86 88 98 100 100 100 100 100 100 100 100
100 100 51 89 82 100 99 31 56 58 42 65 100 3 5 0 4 0 5 5 5 5 5 5 5 5 5 12 66 99 100 100 100 100 99 100 100 100 100 100 100 100 100 100
100 100 95 12 23 35 99 100 99 100 100 98 54 1 5 5 5 5 5 5 5 5 31 5 5 21 61 94 100 100 100 100 100 100 100 100 100 100 100 100 100 100 100 100
100 76 54 51 100 100 100 100 63 100 95 100 8 3 8 2 0 1 5 5 26 58 15 5 5 26 100 100 100 100 100 100 100 100 100 100 100 100 100 100 100 100 100 100
100 100 100 100 100 100 100 98 100 100 60 99 4 0 0 0 0 3 5 55 78 10 5 7 82 68 100 100 100 100 100 100 100 100 100 100 100 100 100 100 100 100 100 100
100 100 100 100 100 99 10 97 100 33 70 34 1 0 0 0 0 15 100 100 40 5 21 89 61 100 100 100 100 100 100 100 100 100 100 100 100 100 100 100 100 100 100 100
100 100 100 100 100 100 85 70 85 68 100 74 3 0 0 5 67 67 62 51 5 6 82 94 90 100 100 100 100 100 100 100 100 100 100 100 100 100 100 100 100 100 100 100
95 100 100 100 99 40 52 47 65 100 100 22 0 0 52 100 100 94 43 5 12 78 88 97 100 95 100 100 100 100 100 100 100 100 100 100 100 100 100 100 100 100 100 100
100 100 90 77 18 2 0 89 55 8 2 0 0 37 100 100 100 99 19 5 36 100 100 100 100 100 100 100 100 100 100 100 100 100 100 100 100 100 100 100 100 100 100 100
100 100 100 90 99 34 0 30 4 0 3 0 13 100 100 92 100 68 31 5 28 100 100 100 100 100 100 100 100 100 100 100 100 100 100 100 100 100 100 100 100 100 100 100
54 100 100 94 93 10 3 1 5 12 5 41 93 100 68 85 100 79 11 5 35 100 100 100 100 100 100 100 100 100 100 100 100 100 100 100 100 100 100 100 100 100 100 100
42 99 100 70 100 60 5 93 34 87 95 100 100 100 100 69 82 78 5 5 24 100 100 100 100 100 100 100 100 100 100 100 100 100 100 100 100 100 100 100 100 100 100 100
67 15 17 5 5 29 20 89 100 99 74 99 100 100 100 77 83 60 5 5 5 99 100 100 100 100 100 100 100 100 100 100 100 100 100 100 100 100 100 100 100 100 100 92
17 7 6 5 74 100 10 39 100 85 100 100 100 100 100 96 40 31 5 5 31 75 100 100 100 100 100 100 100 100 100 100 100 100 100 100 100 100 100 100 100 99 96 88
67 6 5 5 28 31 6 60 98 100 100 100 100 100 100 100 28 30 5 66 77 85 86 100 100 100 100 100 100 100 100 100 100 100 100 100 100 100 100 100 93 82 89 95
80 4 4 5 52 10 62 96 100 100 100 100 100 100 92 100 54 30 6 77 100 97 100 100 100 100 100 100 100 100 100 100 100 100 100 100 100 100 100 72 47 32 84 97

GFSCGP_prec_cloud_138.txt.gz
Cloud_Cover
91 98 64 5 6 23 10 61 100 100 100 100 100 100 100 100 100 100 100 100 100 100 100 100 100 91 65 37 35 49 5 5 5 5 0 0 0 0 0 0 0 0 0 0
78 83 80 90 100 72 5 57 81 53 84 100 96 100 100 100 100 100 88 65 53 19 5 5 4 4 5 5 3 0 0 0 0 0 0 0 0 0 0 0 0 0 0 12
59 11 30 5 5 5 5 5 5 5 29 49 18 74 91 94 10 55 31 8 5 1 0 0 0 0 0 0 0 0 2 5 5 5 5 5 3 1 0 0 0 3 25 42
5 5 12 28 57 41 8 5 14 77 78 81 85 99 100 16 100 100 100 17 5 5 3 0 0 0 0 3 4 5 5 5 5 5 5 19 17 15 9 8 25 55 75 100
5 11 5 5 97 100 100 100 100 80 81 7 10 17 79 6 11 28 34 5 5 3 0 0 0 0 2 4 5 5 5 5 5 10 28 50 67 80 80 100 100 100 83 100
96 98 18 51 24 98 100 100 97 8 5 5 5 5 98 4 10 5 5 5 1 0 0 0 0 0 4 5 5 5 5 5 5 6 39 75 94 89 99 100 100 100 100 100
100 92 100 71 14 26 58 62 95 100 36 5 5 7 96 66 46 91 53 3 0 0 0 0 1 2 5 5 5 5 5 5 8 40 61 91 100 100 100 100 100 100 100 100
100 100 100 100 72 22 96 100 100 100 89 43 5 16 31 100 93 9 0 0 0 0 0 4 5 5 5 5 5 5 5 5 29 67 74 98 100 100 100 100 100 100 100 100
100 100 100 100 100 100 100 100 100 66 74 43 63 5 60 99 5 0 0 0 0 1 0 5 5 5 0 0 5 5 5 20 66 98 79 100 100 100 100 100 100 100 100 100
100 100 100 100 100 100 100 100 100 100 73 41 5 5 100 18 0 0 0 0 0 4 5 5 5 5 0 0 0 5 5 87 83 86 88 92 100 100 100 100 100 100 100 100
100 100 100 100 100 100 100 100 100 100 30 14 58 18 100 66 0 0 0 4 0 5 5 21 5 4 1 3 5 5 56 97 94 100 100 98 100 100 100 100 100 100 100 100
100 100 100 100 100 100 100 100 84 55 95 81 91 1 39 2 1 3 5 0 0 5 5 5 5 9 11 11 11 47 100 99 100 100 100 100 100 100 100 100 100 100 100 100
100 100 100 100 100 100 100 100 100 97 98 24 76 6 5 5 5 4 2 0 1 5 5 5 62 27 5 5 63 86 100 100 100 100 100 100 100 100 100 100 100 100 100 100
100 100 100 100 100 100 100 69 81 100 100 100 29 9 86 6 5 5 5 5 5 5 5 35 6 5 5 11 78 100 100 100 100 100 100 100 100 100 100 100 100 100 100 100
100 100 100 100 100 100 95 84 19 100 100 97 5 5 85 15 18 5 1 4 4 5 26 5 5 5 5 5 29 100 100 100 100 100 100 100 100 100 100 100 100 100 100 100
100 100 100 100 60 78 7 6 100 100 40 50 5 20 7 8 5 5 0 1 5 24 8 5 34 36 10 17 93 100 100 100 100 100 100 100 100 100 100 100 100 100 100 100
100 100 100 100 33 79 75 73 83 43 6 45 20 5 5 5 3 0 1 7 5 42 5 34 65 93 5 64 100 100 100 100 100 100 100 100 100 100 100 100 100 100 100 100
100 100 100 100 100 92 47 99 100 100 83 100 24 5 5 3 1 5 40 57 31 15 5 66 84 59 6 60 100 100 100 100 100 100 100 100 100 100 100 100 100 100 100 100
100 100 100 100 100 100 100 100 100 100 61 41 5 4 0 5 5 8 98 100 54 5 25 80 88 35 54 61 100 100 100 100 100 100 100 100 100 100 100 100 100 100 100 100
100 100 100 100 100 100 84 100 100 14 20 0 0 0 2 5 20 100 100 99 38 5 5 37 100 94 88 91 100 100 100 100 100 100 100 100 100 100 100 100 100 100 100 100
100 100 100 100 100 76 100 99 90 4 0 0 1 5 70 15 100 100 100 82 20 5 5 82 100 99 87 100 100 100 100 100 100 100 100 100 100 100 100 100 100 100 100 100
100 100 98 100 100 78 63 10 3 5 5 5 28 48 100 99 100 100 100 70 48 5 9 89 100 100 98 100 100 100 100 100 100 100 100 100 100 100 100 100 100 100 100 100
54 100 72 10 60 10 0 1 2 12 91 7 90 100 100 100 100 100 76 50 30 5 5 53 94 100 100 100 100 100 100 100 100 100 100 100 100 100 100 100 100 100 100 100
100 100 85 5 5 3 0 0 5 5 5 30 100 100 100 100 100 100 64 60 18 6 7 7 61 98 100 100 100 100 100 100 100 100 100 100 100 100 100 100 100 100 100 100
100 99 9 4 28 0 1 1 5 5 49 100 100 100 97 100 100 100 98 30 8 11 58 65 69 82 96 99 100 100 100 100 100 100 100 100 100 100 100 100 100 100 100 100
100 55 4 5 3 4 5 4 5 6 99 98 100 100 100 100 100 100 100 100 64 33 84 100 93 100 86 100 100 100 100 100 100 100 100 100 100 100 100 100 100 100 97 98